M I D A S
Marine Information and Data Acquisition System
Tripno 2264 of the Zeeleeuw from 2012-02-13 09:27:11 to 2012-02-13 15:21:38
Back to CruiseResearch ActivitiesStationsMapUnderway DataData graphs

EquipmentUnitsComment
TimeDGPSUTC
LatitudeDGPSDM.mWGS84
LongitudeDGPSDM.mWGS84
TemperatureSBE03/SBE38deg celciusITS90
ConductivitySBE21S/mITS90
SalinitySBE21 Practical Salinity Units
ChlorophylAChelsea fluorimeterg/lCalibrated in Aceton
Missing or incorrect values are displayed as -999
Sea surface data collected by the RV Zeeleeuw from 2012-02-13 07:31:11 to 2012-02-13 15:31:12
                                                                                    Next 1000 lines
Time Latitude Longitude Temperature Conductivity Salinity ChlorophylA
2012-02-13 07:31:22 51°13.636 2°56.019 8.8665 0.427674 2.467179 -1.326982
2012-02-13 07:31:27 51°13.636 2°56.019 8.8643 0.427674 2.467179 -1.326982
2012-02-13 07:31:31 51°13.636 2°56.018 8.8687 0.427674 2.467179 -1.326982
2012-02-13 07:31:37 51°13.636 2°56.018 8.865 0.427674 2.467222 -1.326982
2012-02-13 07:31:42 51°13.636 2°56.018 8.8702 0.427674 2.467179 -1.326982
2012-02-13 07:31:47 51°13.636 2°56.018 8.8708 0.427777 2.46781 -1.326982
2012-02-13 07:31:51 51°13.636 2°56.018 8.8771 0.427777 2.46781 -1.326982
2012-02-13 07:31:57 51°13.636 2°56.019 8.8756 0.427777 2.46781 -1.326982
2012-02-13 07:32:01 51°13.636 2°56.018 8.8757 0.427674 2.467179 -1.326982
2012-02-13 07:32:07 51°13.636 2°56.018 8.8737 0.427674 2.467179 -1.326982
2012-02-13 07:32:11 51°13.635 2°56.018 8.8752 0.427777 2.467767 -1.326982
2012-02-13 07:32:17 51°13.635 2°56.019 8.8758 0.427777 2.467767 -1.326982
2012-02-13 07:32:22 51°13.635 2°56.019 8.8781 0.427777 2.467767 -1.326982
2012-02-13 07:32:27 51°13.636 2°56.02 8.8755 0.427777 2.467767 -1.326982
2012-02-13 07:32:31 51°13.636 2°56.02 8.8764 0.427777 2.467767 -1.326982
2012-02-13 07:32:37 51°13.636 2°56.02 8.8769 0.427777 2.467767 -1.326982
2012-02-13 07:32:42 51°13.636 2°56.021 8.8857 0.427777 2.467767 -1.326982
2012-02-13 07:32:47 51°13.636 2°56.021 8.892 0.427777 2.467767 -1.326982
2012-02-13 07:32:51 51°13.636 2°56.021 8.8899 0.427777 2.467767 -1.326982
2012-02-13 07:32:57 51°13.636 2°56.021 8.8927 0.427777 2.467767 -1.326982
2012-02-13 07:33:02 51°13.636 2°56.02 8.8919 0.427777 2.467724 -1.326982
2012-02-13 07:33:07 51°13.636 2°56.02 8.8885 0.427777 2.467724 -1.326982
2012-02-13 07:33:11 51°13.636 2°56.02 8.8863 0.427777 2.467724 -1.326982
2012-02-13 07:33:17 51°13.636 2°56.02 8.8842 0.427777 2.467724 -1.326982
2012-02-13 07:33:22 51°13.636 2°56.02 8.8826 0.427777 2.467724 -1.326982
2012-02-13 07:33:27 51°13.636 2°56.02 8.8817 0.427777 2.467724 -1.326982
2012-02-13 07:33:31 51°13.636 2°56.019 8.882 0.427777 2.467724 -1.326982
2012-02-13 07:33:37 51°13.636 2°56.02 8.8763 0.427777 2.467724 -1.326982
2012-02-13 07:33:41 51°13.636 2°56.02 8.8674 0.42788 2.468312 -1.326982
2012-02-13 07:33:47 51°13.636 2°56.02 8.8691 0.427777 2.467681 -1.326982
2012-02-13 07:33:51 51°13.636 2°56.02 8.873 0.427777 2.467681 -1.326982
2012-02-13 07:33:57 51°13.636 2°56.02 8.8778 0.427777 2.467681 -1.326982
2012-02-13 07:34:02 51°13.636 2°56.02 8.8817 0.427777 2.467681 -1.326982
2012-02-13 07:34:07 51°13.636 2°56.02 8.8771 0.427777 2.467681 -1.326982
2012-02-13 07:34:11 51°13.637 2°56.019 8.872 0.42788 2.468312 -1.326982
2012-02-13 07:34:17 51°13.636 2°56.02 8.8745 0.427777 2.467681 -1.326982
2012-02-13 07:34:22 51°13.636 2°56.02 8.8793 0.427777 2.467681 -1.326982
2012-02-13 07:34:27 51°13.637 2°56.019 8.8793 0.427777 2.467681 -1.326982
2012-02-13 07:34:31 51°13.636 2°56.019 8.8825 0.42788 2.468269 -1.326982
2012-02-13 07:34:37 51°13.636 2°56.02 8.8828 0.42788 2.468183 -1.326982
2012-02-13 07:34:42 51°13.636 2°56.019 8.8842 0.42788 2.46814 -1.326982
2012-02-13 07:34:47 51°13.636 2°56.02 8.8831 0.42788 2.46814 -1.326982
2012-02-13 07:34:51 51°13.636 2°56.02 8.8848 0.42788 2.468183 -1.326982
2012-02-13 07:34:57 51°13.636 2°56.019 8.8848 0.42788 2.468183 -1.326982
2012-02-13 07:35:02 51°13.636 2°56.02 8.8842 0.42788 2.468226 -1.326982
2012-02-13 07:35:07 51°13.636 2°56.019 8.8817 0.42788 2.468226 -1.326982
2012-02-13 07:35:11 51°13.636 2°56.019 8.8827 0.42788 2.468269 -1.326982
2012-02-13 07:35:17 51°13.636 2°56.019 8.8805 0.42788 2.468269 -1.326982
2012-02-13 07:35:22 51°13.636 2°56.019 8.881 0.42788 2.468269 -1.326982
2012-02-13 07:35:27 51°13.636 2°56.019 8.8808 0.42788 2.468269 -1.326982
2012-02-13 07:35:31 51°13.636 2°56.019 8.8784 0.42788 2.468269 -1.326982
2012-02-13 07:35:37 51°13.636 2°56.019 8.8777 0.42788 2.468226 -1.326982
2012-02-13 07:35:42 51°13.636 2°56.019 8.8765 0.42788 2.468226 -1.326982
2012-02-13 07:35:47 51°13.636 2°56.019 8.8755 0.42788 2.468226 -1.326982
2012-02-13 07:35:51 51°13.636 2°56.019 8.8752 0.42788 2.468183 -1.326982
2012-02-13 07:35:57 51°13.636 2°56.019 8.8739 0.42788 2.468183 -1.326982
2012-02-13 07:36:01 51°13.636 2°56.019 8.8747 0.42788 2.468226 -1.358416
2012-02-13 07:36:07 51°13.637 2°56.019 8.8748 0.42788 2.468226 -1.326982
2012-02-13 07:36:11 51°13.637 2°56.019 8.8745 0.42788 2.468183 -1.326982
2012-02-13 07:36:17 51°13.637 2°56.019 8.8761 0.42788 2.468183 -1.326982
2012-02-13 07:36:21 51°13.637 2°56.02 8.8738 0.427983 2.468814 -1.326982
2012-02-13 07:36:27 51°13.637 2°56.02 8.8709 0.427983 2.468814 -1.326982
2012-02-13 07:36:31 51°13.637 2°56.02 8.8698 0.42788 2.468183 -1.326982
2012-02-13 07:36:37 51°13.637 2°56.02 8.8696 0.427983 2.468814 -1.326982
2012-02-13 07:36:42 51°13.637 2°56.02 8.8702 0.427983 2.468771 -1.326982
2012-02-13 07:36:47 51°13.637 2°56.021 8.8724 0.42788 2.46814 -1.326982
2012-02-13 07:36:51 51°13.637 2°56.021 8.8733 0.427983 2.468771 -1.326982
2012-02-13 07:36:57 51°13.637 2°56.02 8.8746 0.427983 2.468771 -1.326982
2012-02-13 07:37:02 51°13.637 2°56.02 8.8754 0.427983 2.468771 -1.326982
2012-02-13 07:37:07 51°13.637 2°56.02 8.8771 0.427983 2.468771 -1.326982
2012-02-13 07:37:11 51°13.637 2°56.021 8.8785 0.427983 2.468728 -1.326982
2012-02-13 07:37:17 51°13.637 2°56.021 8.879 0.427983 2.468728 -1.326982
2012-02-13 07:37:22 51°13.637 2°56.021 8.881 0.427983 2.468728 -1.326982
2012-02-13 07:37:27 51°13.637 2°56.021 8.8816 0.427983 2.468728 -1.326982
2012-02-13 07:37:31 51°13.637 2°56.021 8.8839 0.427983 2.468728 -1.326982
2012-02-13 07:37:37 51°13.637 2°56.02 8.8816 0.427983 2.468728 -1.326982
2012-02-13 07:37:42 51°13.637 2°56.02 8.8813 0.427983 2.468728 -1.326982
2012-02-13 07:37:47 51°13.637 2°56.021 8.8812 0.427983 2.468728 -1.326982
2012-02-13 07:37:51 51°13.637 2°56.021 8.8831 0.427983 2.468728 -1.326982
2012-02-13 07:37:57 51°13.637 2°56.02 8.8836 0.427983 2.468728 -1.326982
2012-02-13 07:38:03 51°13.637 2°56.02 8.8855 0.427983 2.468685 -1.326982
2012-02-13 07:38:08 51°13.637 2°56.02 8.8847 0.427983 2.468685 -1.326982
2012-02-13 07:38:12 51°13.637 2°56.02 8.8849 0.427983 2.468685 -1.326982
2012-02-13 07:38:17 51°13.637 2°56.02 8.8834 0.427983 2.468685 -1.326982
2012-02-13 07:38:22 51°13.637 2°56.019 8.8844 0.427983 2.468685 -1.326982
2012-02-13 07:38:28 51°13.637 2°56.02 8.8828 0.427983 2.468685 -1.326982
2012-02-13 07:38:32 51°13.637 2°56.019 8.8831 0.427983 2.468642 -1.326982
2012-02-13 07:38:37 51°13.637 2°56.019 8.8824 0.427983 2.468642 -1.326982
2012-02-13 07:38:42 51°13.637 2°56.02 8.8834 0.427983 2.468642 -1.326982
2012-02-13 07:38:47 51°13.637 2°56.02 8.8838 0.427983 2.468642 -1.326982
2012-02-13 07:38:52 51°13.637 2°56.019 8.8876 0.427983 2.468642 -1.326982
2012-02-13 07:38:57 51°13.637 2°56.019 8.8896 0.427983 2.468642 -1.326982
2012-02-13 07:39:02 51°13.636 2°56.019 8.8938 0.427983 2.468642 -1.326982
2012-02-13 07:39:07 51°13.636 2°56.019 8.8943 0.428085 2.469272 -1.326982
2012-02-13 07:39:12 51°13.637 2°56.019 8.899 0.428085 2.469272 -1.326982
2012-02-13 07:39:17 51°13.637 2°56.019 8.8982 0.427983 2.468642 -1.326982
2012-02-13 07:39:22 51°13.637 2°56.019 8.9003 0.428085 2.469272 -1.326982
2012-02-13 07:39:27 51°13.637 2°56.019 8.9006 0.428085 2.469272 -1.326982
2012-02-13 07:39:32 51°13.637 2°56.019 8.8994 0.428085 2.469272 -1.326982
2012-02-13 07:39:37 51°13.638 2°56.019 8.9008 0.428085 2.469272 -1.326982
2012-02-13 07:39:42 51°13.638 2°56.019 8.9024 0.428085 2.469272 -1.326982
2012-02-13 07:39:47 51°13.638 2°56.019 8.9028 0.428085 2.469229 -1.326982
2012-02-13 07:39:52 51°13.637 2°56.019 8.902 0.428085 2.469229 -1.326982
2012-02-13 07:39:57 51°13.637 2°56.019 8.8985 0.428085 2.469229 -1.326982
2012-02-13 07:40:02 51°13.637 2°56.019 8.9035 0.428085 2.469229 -1.326982
2012-02-13 07:40:07 51°13.637 2°56.019 8.9049 0.428085 2.469229 -1.326982
2012-02-13 07:40:12 51°13.637 2°56.019 8.9091 0.428085 2.469229 -1.326982
2012-02-13 07:40:17 51°13.638 2°56.019 8.9115 0.428085 2.469229 -1.326982
2012-02-13 07:40:22 51°13.637 2°56.019 8.9127 0.428085 2.469229 -1.326982
2012-02-13 07:40:27 51°13.636 2°56.019 8.9104 0.428085 2.469229 -1.326982
2012-02-13 07:40:32 51°13.637 2°56.019 8.9308 0.428085 2.469229 -1.326982
2012-02-13 07:40:37 51°13.636 2°56.019 8.93 0.428188 2.46986 -1.326982
2012-02-13 07:40:42 51°13.636 2°56.019 8.9337 0.428188 2.46986 -1.326982
2012-02-13 07:40:47 51°13.637 2°56.019 8.9252 0.428188 2.469817 -1.326982
2012-02-13 07:40:52 51°13.637 2°56.019 8.9268 0.428188 2.469817 -1.326982
2012-02-13 07:40:57 51°13.637 2°56.019 8.9216 0.428188 2.469817 -1.326982
2012-02-13 07:41:02 51°13.637 2°56.019 8.9186 0.428188 2.46986 -1.326982
2012-02-13 07:41:07 51°13.637 2°56.019 8.9185 0.428188 2.469817 -1.326982
2012-02-13 07:41:12 51°13.637 2°56.019 8.9215 0.428188 2.469817 -1.326982
2012-02-13 07:41:17 51°13.637 2°56.019 8.9225 0.428188 2.469817 -1.326982
2012-02-13 07:41:22 51°13.637 2°56.019 8.9247 0.428188 2.469817 -1.326982
2012-02-13 07:41:27 51°13.637 2°56.019 8.926 0.428188 2.469817 -1.326982
2012-02-13 07:41:32 51°13.637 2°56.019 8.934 0.428188 2.469817 -1.326982
2012-02-13 07:41:37 51°13.637 2°56.018 8.925 0.428188 2.469817 -1.326982
2012-02-13 07:41:42 51°13.637 2°56.018 8.9228 0.428188 2.469817 -1.326982
2012-02-13 07:41:47 51°13.637 2°56.018 8.9225 0.428188 2.469817 -1.326982
2012-02-13 07:41:52 51°13.636 2°56.018 8.9234 0.428188 2.469817 -1.326982
2012-02-13 07:41:57 51°13.636 2°56.018 8.924 0.428188 2.469817 -1.326982
2012-02-13 07:42:02 51°13.636 2°56.018 8.9244 0.428188 2.469817 -1.326982
2012-02-13 07:42:07 51°13.636 2°56.018 8.9262 0.428188 2.469774 -1.326982
2012-02-13 07:42:12 51°13.636 2°56.018 8.925 0.428188 2.469774 -1.326982
2012-02-13 07:42:16 51°13.636 2°56.018 8.9234 0.428291 2.470448 -1.326982
2012-02-13 07:42:22 51°13.636 2°56.018 8.9214 0.428188 2.469817 -1.326982
2012-02-13 07:42:27 51°13.635 2°56.018 8.9178 0.428188 2.469817 -1.326982
2012-02-13 07:42:32 51°13.635 2°56.018 8.9177 0.428188 2.469774 -1.326982
2012-02-13 07:42:36 51°13.635 2°56.018 8.9184 0.428188 2.469817 -1.326982
2012-02-13 07:42:42 51°13.635 2°56.018 8.9182 0.428188 2.469774 -1.326982
2012-02-13 07:42:47 51°13.636 2°56.018 8.9185 0.428291 2.470405 -1.326982
2012-02-13 07:42:52 51°13.635 2°56.019 8.9188 0.428291 2.470405 -1.326982
2012-02-13 07:42:57 51°13.635 2°56.019 8.9153 0.428291 2.470405 -1.326982
2012-02-13 07:43:02 51°13.635 2°56.018 8.9013 0.428188 2.469731 -1.326982
2012-02-13 07:43:07 51°13.636 2°56.018 8.9083 0.428291 2.470405 -1.326982
2012-02-13 07:43:12 51°13.636 2°56.019 8.9224 0.428188 2.469774 -1.326982
2012-02-13 07:43:17 51°13.636 2°56.019 8.928 0.428291 2.470362 -1.326982
2012-02-13 07:43:21 51°13.636 2°56.019 8.9009 0.428291 2.470362 -1.326982
2012-02-13 07:43:27 51°13.636 2°56.019 8.9235 0.428291 2.470362 -1.326982
2012-02-13 07:43:32 51°13.636 2°56.019 8.9531 0.428188 2.469731 -1.326982
2012-02-13 07:43:37 51°13.636 2°56.019 8.9449 0.428291 2.470319 -1.326982
2012-02-13 07:43:41 51°13.636 2°56.019 8.9422 0.428291 2.470362 -1.326982
2012-02-13 07:43:47 51°13.636 2°56.019 8.9261 0.428291 2.470362 -1.326982
2012-02-13 07:43:52 51°13.636 2°56.019 8.916 0.428291 2.470362 -1.326982
2012-02-13 07:43:57 51°13.637 2°56.019 8.916 0.428291 2.470362 -1.326982
2012-02-13 07:44:02 51°13.637 2°56.019 8.9119 0.428291 2.470319 -1.326982
2012-02-13 07:44:07 51°13.636 2°56.019 8.9115 0.428291 2.470319 -1.326982
2012-02-13 07:44:12 51°13.636 2°56.019 8.9083 0.428291 2.470319 -1.326982
2012-02-13 07:44:17 51°13.635 2°56.019 8.8909 0.428291 2.470319 -1.326982
2012-02-13 07:44:22 51°13.636 2°56.019 8.8946 0.428291 2.470319 -1.326982
2012-02-13 07:44:27 51°13.637 2°56.019 8.8881 0.428291 2.470319 -1.326982
2012-02-13 07:44:32 51°13.637 2°56.019 8.8868 0.428291 2.470319 -1.326982
2012-02-13 07:44:36 51°13.637 2°56.019 8.8944 0.428291 2.470319 -1.326982
2012-02-13 07:44:42 51°13.637 2°56.019 8.8955 0.428291 2.470276 -1.326982
2012-02-13 07:44:47 51°13.637 2°56.019 8.8966 0.428291 2.470276 -1.326982
2012-02-13 07:44:52 51°13.637 2°56.019 8.8521 0.428291 2.470276 -1.326982
2012-02-13 07:44:57 51°13.637 2°56.019 8.7099 0.428291 2.470276 -1.326982
2012-02-13 07:45:02 51°13.637 2°56.019 8.5538 0.428291 2.47019 -1.326982
2012-02-13 07:45:07 51°13.637 2°56.019 8.4431 0.428291 2.470018 -1.326982
2012-02-13 07:45:12 51°13.637 2°56.019 8.408 0.428188 2.469301 -1.326982
2012-02-13 07:45:17 51°13.637 2°56.019 8.4117 0.428188 2.469173 -1.326982
2012-02-13 07:45:22 51°13.637 2°56.019 8.3796 0.428085 2.468542 -1.326982
2012-02-13 07:45:27 51°13.637 2°56.019 8.3683 0.428085 2.468542 -1.326982
2012-02-13 07:45:32 51°13.638 2°56.019 8.394 0.428085 2.468542 -1.326982
2012-02-13 07:45:37 51°13.638 2°56.019 8.4385 0.428085 2.468542 -1.326982
2012-02-13 07:45:42 51°13.638 2°56.02 8.4826 0.427983 2.467911 -1.326982
2012-02-13 07:45:47 51°13.637 2°56.02 8.5101 0.427983 2.467911 -1.326982
2012-02-13 07:45:52 51°13.638 2°56.019 8.5205 0.427983 2.467868 -1.326982
2012-02-13 07:45:57 51°13.638 2°56.02 8.5309 0.427983 2.467868 -1.326982
2012-02-13 07:46:02 51°13.638 2°56.02 8.5373 0.42788 2.467195 -1.326982
2012-02-13 07:46:07 51°13.638 2°56.02 8.5508 0.42788 2.467109 -1.326982
2012-02-13 07:46:12 51°13.638 2°56.02 8.5635 0.42788 2.467109 -1.326982
2012-02-13 07:46:17 51°13.638 2°56.02 8.5699 0.427777 2.466521 -1.326982
2012-02-13 07:46:22 51°13.638 2°56.02 8.5739 0.427777 2.466521 -1.326982
2012-02-13 07:46:27 51°13.638 2°56.02 8.58 0.427777 2.466521 -1.326982
2012-02-13 07:46:32 51°13.638 2°56.02 8.5789 0.427777 2.466564 -1.326982
2012-02-13 07:46:37 51°13.638 2°56.02 8.5862 0.427777 2.466564 -1.326982
2012-02-13 07:46:42 51°13.638 2°56.02 8.5968 0.427777 2.466564 -1.326982
2012-02-13 07:46:47 51°13.639 2°56.02 8.6045 0.427777 2.466564 -1.326982
2012-02-13 07:46:52 51°13.639 2°56.02 8.6094 0.427674 2.465934 -1.326982
2012-02-13 07:46:57 51°13.639 2°56.019 8.6873 0.427674 2.465934 -1.326982
2012-02-13 07:47:02 51°13.638 2°56.019 8.7231 0.427674 2.465934 -1.326982
2012-02-13 07:47:07 51°13.638 2°56.02 8.7132 0.427674 2.465934 -1.326982
2012-02-13 07:47:12 51°13.639 2°56.02 8.713 0.427674 2.465891 -1.326982
2012-02-13 07:47:16 51°13.639 2°56.02 8.7388 0.427674 2.465934 -1.326982
2012-02-13 07:47:22 51°13.638 2°56.019 8.7718 0.427674 2.465934 -1.326982
2012-02-13 07:47:27 51°13.638 2°56.02 8.7662 0.427674 2.465934 -1.326982
2012-02-13 07:47:32 51°13.638 2°56.02 8.7664 0.427571 2.465303 -1.326982
2012-02-13 07:47:37 51°13.638 2°56.019 8.7719 0.427571 2.465303 -1.326982
2012-02-13 07:47:42 51°13.638 2°56.019 8.7712 0.427674 2.465934 -1.326982
2012-02-13 07:47:47 51°13.638 2°56.02 8.7703 0.427674 2.465977 -1.326982
2012-02-13 07:47:52 51°13.638 2°56.02 8.7682 0.427571 2.465346 -1.326982
2012-02-13 07:47:57 51°13.638 2°56.02 8.7729 0.427571 2.465346 -1.326982
2012-02-13 07:48:02 51°13.638 2°56.02 8.7792 0.427571 2.465303 -1.326982
2012-02-13 07:48:07 51°13.638 2°56.02 8.7877 0.427571 2.465346 -1.326982
2012-02-13 07:48:12 51°13.638 2°56.02 8.8041 0.427674 2.465977 -1.326982
2012-02-13 07:48:17 51°13.637 2°56.019 8.8456 0.427571 2.465346 -1.326982
2012-02-13 07:48:22 51°13.637 2°56.019 8.8536 0.427571 2.465346 -1.326982
2012-02-13 07:48:27 51°13.636 2°56.018 8.8507 0.427571 2.465346 -1.326982
2012-02-13 07:48:32 51°13.636 2°56.018 8.8502 0.427571 2.465389 -1.326982
2012-02-13 07:48:37 51°13.636 2°56.018 8.8476 0.427571 2.465346 -1.326982
2012-02-13 07:48:42 51°13.636 2°56.018 8.84 0.427571 2.465346 -1.326982
2012-02-13 07:48:47 51°13.636 2°56.018 8.8365 0.427571 2.465346 -1.326982
2012-02-13 07:48:52 51°13.637 2°56.019 8.8292 0.427571 2.465346 -1.326982
2012-02-13 07:48:57 51°13.636 2°56.018 8.8257 0.427571 2.465346 -1.326982
2012-02-13 07:49:02 51°13.637 2°56.018 8.8222 0.427674 2.465977 -1.326982
2012-02-13 07:49:07 51°13.636 2°56.018 8.821 0.427571 2.465346 -1.326982
2012-02-13 07:49:12 51°13.636 2°56.018 8.8188 0.427571 2.465346 -1.326982
2012-02-13 07:49:16 51°13.636 2°56.018 8.8185 0.427571 2.465346 -1.326982
2012-02-13 07:49:22 51°13.636 2°56.018 8.8174 0.427571 2.465346 -1.326982
2012-02-13 07:49:27 51°13.636 2°56.018 8.8174 0.427571 2.465346 -1.326982
2012-02-13 07:49:32 51°13.636 2°56.018 8.8161 0.427571 2.465346 -1.326982
2012-02-13 07:49:37 51°13.636 2°56.018 8.8133 0.427674 2.465934 -1.326982
2012-02-13 07:49:42 51°13.636 2°56.018 8.8142 0.427571 2.465432 -1.326982
2012-02-13 07:49:47 51°13.636 2°56.018 8.8164 0.427571 2.465475 -1.326982
2012-02-13 07:49:52 51°13.636 2°56.018 8.8156 0.427571 2.465432 -1.326982
2012-02-13 07:49:57 51°13.635 2°56.018 8.8141 0.427571 2.465432 -1.326982
2012-02-13 07:50:02 51°13.636 2°56.018 8.8123 0.427571 2.465303 -1.326982
2012-02-13 07:50:07 51°13.636 2°56.018 8.8134 0.427571 2.465175 -1.326982
2012-02-13 07:50:12 51°13.636 2°56.017 8.8182 0.427571 2.465217 -1.326982
2012-02-13 07:50:17 51°13.636 2°56.018 8.8215 0.427571 2.46526 -1.326982
2012-02-13 07:50:22 51°13.636 2°56.018 8.8226 0.427571 2.465346 -1.326982
2012-02-13 07:50:27 51°13.636 2°56.018 8.8251 0.427571 2.465346 -1.326982
2012-02-13 07:50:32 51°13.636 2°56.018 8.8266 0.427571 2.465389 -1.326982
2012-02-13 07:50:37 51°13.636 2°56.018 8.8272 0.427571 2.465389 -1.326982
2012-02-13 07:50:42 51°13.636 2°56.018 8.8282 0.427571 2.465346 -1.326982
2012-02-13 07:50:47 51°13.636 2°56.018 8.8282 0.427571 2.465303 -1.326982
2012-02-13 07:50:52 51°13.636 2°56.018 8.8292 0.427571 2.465303 -1.326982
2012-02-13 07:50:57 51°13.636 2°56.018 8.8304 0.427571 2.465303 -1.326982
2012-02-13 07:51:02 51°13.636 2°56.018 8.832 0.427571 2.465303 -1.326982
2012-02-13 07:51:07 51°13.636 2°56.017 8.8331 0.427571 2.465303 -1.326982
2012-02-13 07:51:12 51°13.636 2°56.017 8.8325 0.427571 2.465346 -1.326982
2012-02-13 07:51:17 51°13.635 2°56.017 8.8329 0.427571 2.465303 -1.326982
2012-02-13 07:51:22 51°13.635 2°56.018 8.8341 0.427571 2.465303 -1.326982
2012-02-13 07:51:27 51°13.636 2°56.017 8.8343 0.427571 2.465303 -1.326982
2012-02-13 07:51:32 51°13.636 2°56.018 8.8331 0.427571 2.465346 -1.326982
2012-02-13 07:51:37 51°13.636 2°56.018 8.8334 0.427571 2.465303 -1.326982
2012-02-13 07:51:42 51°13.636 2°56.018 8.8336 0.427571 2.465303 -1.326982
2012-02-13 07:51:47 51°13.636 2°56.018 8.8345 0.427674 2.465934 -1.326982
2012-02-13 07:51:52 51°13.636 2°56.018 8.8353 0.427674 2.465934 -1.326982
2012-02-13 07:51:57 51°13.636 2°56.018 8.8373 0.427674 2.465934 -1.326982
2012-02-13 07:52:02 51°13.636 2°56.018 8.8397 0.427571 2.465303 -1.326982
2012-02-13 07:52:07 51°13.636 2°56.018 8.8417 0.427674 2.465934 -1.326982
2012-02-13 07:52:12 51°13.636 2°56.019 8.8417 0.427571 2.465303 -1.358416
2012-02-13 07:52:17 51°13.636 2°56.018 8.8426 0.427674 2.465934 -1.326982
2012-02-13 07:52:22 51°13.635 2°56.018 8.8436 0.427674 2.465934 -1.326982
2012-02-13 07:52:27 51°13.636 2°56.018 8.8418 0.427674 2.465934 -1.326982
2012-02-13 07:52:32 51°13.635 2°56.018 8.8405 0.427571 2.465303 -1.326982
2012-02-13 07:52:37 51°13.635 2°56.019 8.8425 0.427674 2.465934 -1.326982
2012-02-13 07:52:42 51°13.636 2°56.019 8.843 0.427674 2.465934 -1.326982
2012-02-13 07:52:47 51°13.635 2°56.018 8.8427 0.427571 2.465303 -1.326982
2012-02-13 07:52:52 51°13.636 2°56.018 8.8445 0.427674 2.465934 -1.326982
2012-02-13 07:52:57 51°13.636 2°56.018 8.8462 0.427674 2.465934 -1.326982
2012-02-13 07:53:02 51°13.636 2°56.018 8.8496 0.427674 2.465934 -1.326982
2012-02-13 07:53:07 51°13.636 2°56.019 8.8516 0.427674 2.465934 -1.326982
2012-02-13 07:53:12 51°13.635 2°56.018 8.8527 0.427571 2.465303 -1.326982
2012-02-13 07:53:17 51°13.635 2°56.019 8.8565 0.427674 2.465934 -1.326982
2012-02-13 07:53:22 51°13.635 2°56.019 8.8594 0.427674 2.465934 -1.326982
2012-02-13 07:53:27 51°13.635 2°56.019 8.8723 0.427674 2.465934 -1.326982
2012-02-13 07:53:32 51°13.635 2°56.019 8.8702 0.427674 2.465934 -1.326982
2012-02-13 07:53:37 51°13.636 2°56.019 8.8636 0.427674 2.465934 -1.326982
2012-02-13 07:53:42 51°13.636 2°56.019 8.8615 0.427777 2.466564 -1.326982
2012-02-13 07:53:47 51°13.636 2°56.019 8.8553 0.427674 2.465891 -1.326982
2012-02-13 07:53:52 51°13.636 2°56.019 8.8518 0.427674 2.465934 -1.326982
2012-02-13 07:53:57 51°13.635 2°56.019 8.8492 0.427674 2.465934 -1.326982
2012-02-13 07:54:02 51°13.635 2°56.019 8.8555 0.427674 2.465934 -1.326982
2012-02-13 07:54:07 51°13.636 2°56.019 8.86 0.427674 2.465891 -1.326982
2012-02-13 07:54:12 51°13.636 2°56.018 8.8605 0.427674 2.465934 -1.326982
2012-02-13 07:54:17 51°13.636 2°56.018 8.8615 0.427674 2.465934 -1.326982
2012-02-13 07:54:22 51°13.637 2°56.018 8.8628 0.427674 2.465934 -1.326982
2012-02-13 07:54:27 51°13.637 2°56.018 8.8631 0.427674 2.465934 -1.326982
2012-02-13 07:54:32 51°13.636 2°56.018 8.8713 0.427674 2.465891 -1.326982
2012-02-13 07:54:37 51°13.636 2°56.018 8.8733 0.427674 2.465934 -1.326982
2012-02-13 07:54:42 51°13.636 2°56.018 8.8773 0.427674 2.465934 -1.326982
2012-02-13 07:54:47 51°13.636 2°56.018 8.8806 0.427674 2.465891 -1.326982
2012-02-13 07:54:52 51°13.636 2°56.018 8.8831 0.427777 2.466564 -1.326982
2012-02-13 07:54:57 51°13.636 2°56.018 8.8809 0.427777 2.466564 -1.326982
2012-02-13 07:55:02 51°13.637 2°56.018 8.881 0.427674 2.465891 -1.326982
2012-02-13 07:55:07 51°13.638 2°56.018 8.873 0.427674 2.465891 -1.326982
2012-02-13 07:55:12 51°13.637 2°56.018 8.869 0.427674 2.465891 -1.326982
2012-02-13 07:55:17 51°13.637 2°56.018 8.8683 0.427777 2.466521 -1.326982
2012-02-13 07:55:22 51°13.637 2°56.018 8.8724 0.427674 2.465891 -1.326982
2012-02-13 07:55:27 51°13.637 2°56.018 8.8743 0.427674 2.465891 -1.326982
2012-02-13 07:55:32 51°13.637 2°56.018 8.8779 0.427674 2.465891 -1.326982
2012-02-13 07:55:37 51°13.637 2°56.018 8.883 0.427777 2.466521 -1.326982
2012-02-13 07:55:42 51°13.637 2°56.019 8.8839 0.427674 2.465891 -1.326982
2012-02-13 07:55:47 51°13.637 2°56.019 8.8881 0.427674 2.465891 -1.326982
2012-02-13 07:55:52 51°13.637 2°56.018 8.887 0.427777 2.466521 -1.326982
2012-02-13 07:55:57 51°13.637 2°56.018 8.8869 0.427777 2.466521 -1.326982
2012-02-13 07:56:02 51°13.637 2°56.018 8.8895 0.427777 2.466521 -1.326982
2012-02-13 07:56:07 51°13.637 2°56.018 8.8917 0.427674 2.465891 -1.326982
2012-02-13 07:56:12 51°13.637 2°56.018 8.8924 0.427777 2.466521 -1.326982
2012-02-13 07:56:17 51°13.637 2°56.018 8.8936 0.427674 2.465934 -1.326982
2012-02-13 07:56:22 51°13.637 2°56.018 8.8964 0.427777 2.466521 -1.326982
2012-02-13 07:56:27 51°13.636 2°56.018 8.8968 0.427777 2.466521 -1.326982
2012-02-13 07:56:32 51°13.637 2°56.018 8.8962 0.427777 2.466521 -1.326982
2012-02-13 07:56:37 51°13.637 2°56.018 8.8975 0.427674 2.465891 -1.326982
2012-02-13 07:56:42 51°13.637 2°56.018 8.8983 0.427777 2.466521 -1.326982
2012-02-13 07:56:47 51°13.637 2°56.018 8.9026 0.427777 2.466564 -1.326982
2012-02-13 07:56:52 51°13.637 2°56.018 8.9031 0.427777 2.466521 -1.326982
2012-02-13 07:56:57 51°13.637 2°56.018 8.8989 0.427777 2.466521 -1.326982
2012-02-13 07:57:02 51°13.637 2°56.017 8.9012 0.427777 2.466521 -1.326982
2012-02-13 07:57:07 51°13.636 2°56.017 8.9046 0.427777 2.466521 -1.326982
2012-02-13 07:57:12 51°13.636 2°56.018 8.9063 0.427777 2.466521 -1.326982
2012-02-13 07:57:17 51°13.637 2°56.018 8.9077 0.427777 2.466521 -1.326982
2012-02-13 07:57:22 51°13.637 2°56.017 8.9071 0.427777 2.466521 -1.326982
2012-02-13 07:57:27 51°13.636 2°56.017 8.9049 0.427777 2.466521 -1.326982
2012-02-13 07:57:32 51°13.636 2°56.017 8.9051 0.427777 2.466521 -1.326982
2012-02-13 07:57:37 51°13.636 2°56.017 8.9028 0.427777 2.466521 -1.326982
2012-02-13 07:57:42 51°13.636 2°56.018 8.902 0.427777 2.466521 -1.326982
2012-02-13 07:57:47 51°13.636 2°56.017 8.9025 0.427777 2.466521 -1.326982
2012-02-13 07:57:52 51°13.637 2°56.017 8.9024 0.427777 2.466521 -1.326982
2012-02-13 07:57:57 51°13.636 2°56.018 8.9024 0.427777 2.466521 -1.326982
2012-02-13 07:58:02 51°13.636 2°56.018 8.9021 0.427777 2.466521 -1.326982
2012-02-13 07:58:07 51°13.636 2°56.018 8.899 0.427777 2.466521 -1.326982
2012-02-13 07:58:12 51°13.636 2°56.018 8.8961 0.427777 2.466521 -1.326982
2012-02-13 07:58:17 51°13.636 2°56.018 8.8992 0.427777 2.466521 -1.326982
2012-02-13 07:58:22 51°13.636 2°56.018 8.9022 0.427777 2.466521 -1.326982
2012-02-13 07:58:27 51°13.637 2°56.018 8.9023 0.427777 2.466521 -1.326982
2012-02-13 07:58:32 51°13.637 2°56.018 8.907 0.427777 2.466478 -1.326982
2012-02-13 07:58:37 51°13.637 2°56.018 8.9078 0.427777 2.466521 -1.326982
2012-02-13 07:58:42 51°13.637 2°56.018 8.9098 0.42788 2.467152 -1.326982
2012-02-13 07:58:47 51°13.637 2°56.018 8.9115 0.427777 2.466521 -1.326982
2012-02-13 07:58:52 51°13.637 2°56.018 8.9117 0.427777 2.466521 -1.326982
2012-02-13 07:58:57 51°13.637 2°56.018 8.9129 0.427777 2.466521 -1.326982
2012-02-13 07:59:02 51°13.637 2°56.018 8.914 0.427777 2.466521 -1.326982
2012-02-13 07:59:07 51°13.637 2°56.018 8.914 0.427777 2.466564 -1.326982
2012-02-13 07:59:12 51°13.637 2°56.018 8.9131 0.427777 2.466521 -1.326982
2012-02-13 07:59:17 51°13.637 2°56.019 8.915 0.42788 2.467152 -1.326982
2012-02-13 07:59:22 51°13.637 2°56.019 8.9136 0.42788 2.467195 -1.326982
2012-02-13 07:59:27 51°13.636 2°56.019 8.9146 0.42788 2.467195 -1.326982
2012-02-13 07:59:32 51°13.636 2°56.018 8.9166 0.427777 2.466564 -1.326982
2012-02-13 07:59:37 51°13.636 2°56.018 8.9171 0.427777 2.466521 -1.326982
2012-02-13 07:59:42 51°13.636 2°56.019 8.9184 0.42788 2.467152 -1.326982
2012-02-13 07:59:47 51°13.636 2°56.019 8.9193 0.42788 2.467195 -1.358416
2012-02-13 07:59:52 51°13.636 2°56.019 8.9209 0.42788 2.467152 -1.326982
2012-02-13 07:59:57 51°13.636 2°56.019 8.9215 0.42788 2.467152 -1.326982
2012-02-13 08:00:02 51°13.636 2°56.019 8.9222 0.42788 2.467195 -1.326982
2012-02-13 08:00:07 51°13.636 2°56.019 8.9171 0.427777 2.466521 -1.326982
2012-02-13 08:00:12 51°13.636 2°56.019 8.9098 0.42788 2.467195 -1.326982
2012-02-13 08:00:17 51°13.636 2°56.019 8.9126 0.42788 2.467195 -1.326982
2012-02-13 08:00:22 51°13.635 2°56.019 8.943 0.427777 2.466564 -1.326982
2012-02-13 08:00:27 51°13.635 2°56.019 8.943 0.427777 2.466564 -1.326982
2012-02-13 08:00:32 51°13.635 2°56.019 8.9426 0.42788 2.467195 -1.326982
2012-02-13 08:00:36 51°13.636 2°56.019 8.955 0.42788 2.467152 -1.326982
2012-02-13 08:00:42 51°13.636 2°56.019 8.9603 0.42788 2.467195 -1.326982
2012-02-13 08:00:47 51°13.636 2°56.019 8.9646 0.42788 2.467195 -1.326982
2012-02-13 08:00:52 51°13.635 2°56.019 8.9682 0.42788 2.467195 -1.326982
2012-02-13 08:00:57 51°13.635 2°56.019 8.9526 0.42788 2.467195 -1.326982
2012-02-13 08:01:02 51°13.635 2°56.019 8.9455 0.42788 2.467195 -1.326982
2012-02-13 08:01:07 51°13.635 2°56.019 8.9444 0.42788 2.467195 -1.326982
2012-02-13 08:01:12 51°13.635 2°56.019 8.9412 0.42788 2.467195 -1.326982
2012-02-13 08:01:17 51°13.635 2°56.019 8.9435 0.42788 2.467195 -1.326982
2012-02-13 08:01:22 51°13.635 2°56.019 8.9481 0.42788 2.467195 -1.326982
2012-02-13 08:01:27 51°13.635 2°56.019 8.9514 0.42788 2.467195 -1.326982
2012-02-13 08:01:32 51°13.635 2°56.019 8.9501 0.42788 2.467195 -1.326982
2012-02-13 08:01:37 51°13.635 2°56.019 8.9497 0.42788 2.467195 -1.326982
2012-02-13 08:01:42 51°13.636 2°56.018 8.9473 0.42788 2.467195 -1.326982
2012-02-13 08:01:47 51°13.636 2°56.019 8.9541 0.42788 2.467195 -1.326982
2012-02-13 08:01:52 51°13.636 2°56.019 8.9661 0.427983 2.467825 -1.326982
2012-02-13 08:01:56 51°13.636 2°56.019 8.9626 0.427983 2.467825 -1.326982
2012-02-13 08:02:03 51°13.637 2°56.019 8.9468 0.42788 2.467195 -1.326982
2012-02-13 08:02:07 51°13.637 2°56.019 8.9516 0.42788 2.467195 -1.326982
2012-02-13 08:02:12 51°13.637 2°56.019 8.9551 0.42788 2.467238 -1.326982
2012-02-13 08:02:17 51°13.636 2°56.019 8.9562 0.427983 2.467868 -1.326982
2012-02-13 08:02:22 51°13.636 2°56.019 8.9581 0.427983 2.467868 -1.326982
2012-02-13 08:02:27 51°13.636 2°56.019 8.9598 0.427983 2.467868 -1.326982
2012-02-13 08:02:32 51°13.636 2°56.018 8.9565 0.42788 2.467238 -1.326982
2012-02-13 08:02:37 51°13.637 2°56.018 8.9464 0.42788 2.467238 -1.326982
2012-02-13 08:02:42 51°13.637 2°56.018 8.9422 0.427983 2.467868 -1.326982
2012-02-13 08:02:47 51°13.636 2°56.018 8.9486 0.427983 2.467868 -1.326982
2012-02-13 08:02:53 51°13.637 2°56.018 8.9552 0.42788 2.467195 -1.326982
2012-02-13 08:02:57 51°13.636 2°56.018 8.95 0.42788 2.467195 -1.326982
2012-02-13 08:03:01 51°13.636 2°56.018 8.9713 0.42788 2.467152 -1.326982
2012-02-13 08:03:07 51°13.636 2°56.018 8.9645 0.427983 2.467782 -1.326982
2012-02-13 08:03:12 51°13.636 2°56.018 8.9564 0.42788 2.467195 -1.326982
2012-02-13 08:03:17 51°13.636 2°56.018 8.9608 0.42788 2.467238 -1.326982
2012-02-13 08:03:22 51°13.635 2°56.018 8.9605 0.42788 2.467238 -1.326982
2012-02-13 08:03:27 51°13.635 2°56.018 8.9643 0.42788 2.467238 -1.326982
2012-02-13 08:03:32 51°13.635 2°56.018 8.9628 0.427983 2.467911 -1.326982
2012-02-13 08:03:37 51°13.635 2°56.018 9.0056 0.42788 2.467238 -1.326982
2012-02-13 08:03:42 51°13.635 2°56.018 9.0024 0.42788 2.467238 -1.326982
2012-02-13 08:03:47 51°13.635 2°56.018 8.969 0.427983 2.467825 -1.326982
2012-02-13 08:03:52 51°13.635 2°56.018 8.9727 0.427983 2.467868 -1.326982
2012-02-13 08:03:57 51°13.635 2°56.018 8.9758 0.427983 2.467868 -1.326982
2012-02-13 08:04:02 51°13.635 2°56.017 8.977 0.42788 2.467238 -1.326982
2012-02-13 08:04:07 51°13.635 2°56.018 8.9916 0.427983 2.467868 -1.326982
2012-02-13 08:04:12 51°13.635 2°56.018 8.9937 0.427983 2.467868 -1.326982
2012-02-13 08:04:17 51°13.635 2°56.018 8.9912 0.427983 2.467868 -1.326982
2012-02-13 08:04:22 51°13.635 2°56.019 8.9907 0.427983 2.467911 -1.326982
2012-02-13 08:04:26 51°13.635 2°56.019 8.9881 0.427983 2.467911 -1.326982
2012-02-13 08:04:31 51°13.636 2°56.019 8.9869 0.427983 2.467911 -1.326982
2012-02-13 08:04:37 51°13.636 2°56.018 8.9871 0.427983 2.467868 -1.326982
2012-02-13 08:04:42 51°13.635 2°56.018 8.9844 0.42788 2.467281 -1.326982
2012-02-13 08:04:47 51°13.635 2°56.018 8.9878 0.427983 2.467868 -1.326982
2012-02-13 08:04:52 51°13.636 2°56.018 8.9967 0.427983 2.467911 -1.326982
2012-02-13 08:04:58 51°13.636 2°56.018 9.0049 0.427983 2.467911 -1.326982
2012-02-13 08:05:02 51°13.636 2°56.018 8.9941 0.427983 2.467911 -1.326982
2012-02-13 08:05:07 51°13.636 2°56.018 8.9849 0.427983 2.467911 -1.326982
2012-02-13 08:05:12 51°13.636 2°56.018 8.9857 0.427983 2.467911 -1.326982
2012-02-13 08:05:17 51°13.636 2°56.018 8.9891 0.427983 2.467911 -1.326982
2012-02-13 08:05:22 51°13.635 2°56.018 8.9921 0.427983 2.467911 -1.326982
2012-02-13 08:05:27 51°13.635 2°56.018 8.9963 0.427983 2.467911 -1.326982
2012-02-13 08:05:31 51°13.635 2°56.018 8.9989 0.427983 2.467911 -1.326982
2012-02-13 08:05:36 51°13.635 2°56.019 8.9978 0.427983 2.467954 -1.326982
2012-02-13 08:05:42 51°13.635 2°56.018 8.9978 0.427983 2.467911 -1.326982
2012-02-13 08:05:48 51°13.636 2°56.018 8.9982 0.427983 2.467954 -1.326982
2012-02-13 08:05:52 51°13.636 2°56.018 8.9987 0.428085 2.468585 -1.326982
2012-02-13 08:05:57 51°13.636 2°56.019 8.9944 0.428085 2.468585 -1.326982
2012-02-13 08:06:02 51°13.636 2°56.018 8.9915 0.427983 2.467911 -1.326982
2012-02-13 08:06:07 51°13.636 2°56.018 8.995 0.427983 2.467954 -1.326982
2012-02-13 08:06:12 51°13.636 2°56.018 8.9932 0.428085 2.468585 -1.326982
2012-02-13 08:06:17 51°13.636 2°56.018 8.9932 0.428085 2.468585 -1.326982
2012-02-13 08:06:22 51°13.636 2°56.019 8.995 0.427983 2.467954 -1.326982
2012-02-13 08:06:27 51°13.636 2°56.019 8.9901 0.427983 2.467954 -1.326982
2012-02-13 08:06:33 51°13.636 2°56.018 8.998 0.428085 2.468585 -1.326982
2012-02-13 08:06:37 51°13.636 2°56.018 9.003 0.428085 2.468585 -1.326982
2012-02-13 08:06:42 51°13.636 2°56.018 9.0092 0.427983 2.467954 -1.326982
2012-02-13 08:06:47 51°13.636 2°56.019 9.0101 0.428085 2.468628 -1.326982
2012-02-13 08:06:52 51°13.635 2°56.019 9.0085 0.428085 2.468628 -1.326982
2012-02-13 08:06:57 51°13.636 2°56.019 9.0027 0.428085 2.468628 -1.326982
2012-02-13 08:07:02 51°13.636 2°56.018 9.005 0.428085 2.468628 -1.326982
2012-02-13 08:07:07 51°13.636 2°56.018 9.0193 0.428085 2.468628 -1.326982
2012-02-13 08:07:12 51°13.636 2°56.018 9.0523 0.428085 2.468585 -1.326982
2012-02-13 08:07:17 51°13.636 2°56.019 9.0143 0.428085 2.468628 -1.326982
2012-02-13 08:07:22 51°13.636 2°56.019 9.0098 0.428085 2.468628 -1.326982
2012-02-13 08:07:27 51°13.636 2°56.019 9.0189 0.428085 2.468628 -1.326982
2012-02-13 08:07:32 51°13.636 2°56.018 9.0144 0.428085 2.468628 -1.326982
2012-02-13 08:07:37 51°13.636 2°56.018 9.0195 0.428085 2.468628 -1.326982
2012-02-13 08:07:42 51°13.636 2°56.019 9.0229 0.428188 2.469258 -1.326982
2012-02-13 08:07:47 51°13.636 2°56.019 9.0252 0.428085 2.468671 -1.326982
2012-02-13 08:07:52 51°13.636 2°56.018 9.0265 0.428085 2.468671 -1.326982
2012-02-13 08:07:57 51°13.636 2°56.019 9.0268 0.428085 2.468671 -1.326982
2012-02-13 08:08:02 51°13.636 2°56.019 9.0264 0.428085 2.468671 -1.326982
2012-02-13 08:08:07 51°13.636 2°56.019 9.0232 0.428085 2.468671 -1.326982
2012-02-13 08:08:12 51°13.636 2°56.019 9.0239 0.428188 2.469301 -1.326982
2012-02-13 08:08:17 51°13.636 2°56.019 9.0244 0.428085 2.468671 -1.326982
2012-02-13 08:08:22 51°13.636 2°56.019 9.0246 0.428188 2.469301 -1.326982
2012-02-13 08:08:27 51°13.636 2°56.019 9.0282 0.428188 2.469301 -1.326982
2012-02-13 08:08:32 51°13.636 2°56.019 9.0291 0.428188 2.469344 -1.326982
2012-02-13 08:08:37 51°13.636 2°56.019 9.0175 0.428085 2.468671 -1.326982
2012-02-13 08:08:42 51°13.636 2°56.018 9.0246 0.428085 2.468671 -1.326982
2012-02-13 08:08:47 51°13.636 2°56.018 9.0548 0.428188 2.469344 -1.326982
2012-02-13 08:08:52 51°13.636 2°56.018 9.0373 0.428188 2.469301 -1.326982
2012-02-13 08:08:57 51°13.636 2°56.018 9.0442 0.428188 2.469301 -1.326982
2012-02-13 08:09:02 51°13.636 2°56.018 9.043 0.428188 2.469344 -1.326982
2012-02-13 08:09:07 51°13.636 2°56.018 9.0441 0.428188 2.469344 -1.326982
2012-02-13 08:09:12 51°13.636 2°56.019 9.0412 0.428188 2.469344 -1.326982
2012-02-13 08:09:17 51°13.636 2°56.019 9.0416 0.428188 2.469344 -1.326982
2012-02-13 08:09:22 51°13.636 2°56.019 9.0418 0.428188 2.469344 -1.326982
2012-02-13 08:09:27 51°13.636 2°56.019 9.0363 0.428188 2.469344 -1.326982
2012-02-13 08:09:32 51°13.637 2°56.019 9.0389 0.428188 2.469344 -1.326982
2012-02-13 08:09:37 51°13.637 2°56.019 9.0453 0.428291 2.469975 -1.326982
2012-02-13 08:09:42 51°13.636 2°56.019 9.0471 0.428188 2.469387 -1.326982
2012-02-13 08:09:47 51°13.636 2°56.019 9.0438 0.428188 2.469387 -1.326982
2012-02-13 08:09:52 51°13.637 2°56.02 9.0415 0.428188 2.469387 -1.326982
2012-02-13 08:09:57 51°13.637 2°56.019 9.0404 0.428188 2.469387 -1.326982
2012-02-13 08:10:02 51°13.637 2°56.019 9.0436 0.428188 2.469387 -1.326982
2012-02-13 08:10:07 51°13.637 2°56.019 9.0497 0.428188 2.469387 -1.326982
2012-02-13 08:10:12 51°13.637 2°56.019 9.0515 0.428188 2.469387 -1.326982
2012-02-13 08:10:17 51°13.637 2°56.019 9.0369 0.428291 2.470061 -1.326982
2012-02-13 08:10:21 51°13.637 2°56.018 9.0245 0.428188 2.46943 -1.326982
2012-02-13 08:10:27 51°13.636 2°56.019 9.0254 0.428188 2.46943 -1.326982
2012-02-13 08:10:32 51°13.636 2°56.02 9.0296 0.428188 2.46943 -1.326982
2012-02-13 08:10:37 51°13.637 2°56.02 9.0361 0.428291 2.470061 -1.326982
2012-02-13 08:10:41 51°13.636 2°56.02 9.0385 0.428291 2.470061 -1.326982
2012-02-13 08:10:47 51°13.636 2°56.019 9.0426 0.428188 2.46943 -1.326982
2012-02-13 08:10:52 51°13.636 2°56.019 9.045 0.428188 2.46943 -1.326982
2012-02-13 08:10:58 51°13.637 2°56.018 9.0493 0.428188 2.46943 -1.326982
2012-02-13 08:11:02 51°13.636 2°56.018 9.0503 0.428291 2.470061 -1.326982
2012-02-13 08:11:07 51°13.637 2°56.018 9.0494 0.428291 2.470104 -1.326982
2012-02-13 08:11:12 51°13.636 2°56.018 9.0556 0.428188 2.469473 -1.326982
2012-02-13 08:11:18 51°13.636 2°56.019 9.0416 0.428291 2.470104 -1.326982
2012-02-13 08:11:22 51°13.636 2°56.019 9.0368 0.428188 2.46943 -1.326982
2012-02-13 08:11:28 51°13.637 2°56.018 9.0401 0.428188 2.46943 -1.326982
2012-02-13 08:11:32 51°13.636 2°56.018 9.0464 0.428291 2.470104 -1.326982
2012-02-13 08:11:38 51°13.637 2°56.018 9.049 0.428188 2.469473 -1.326982
2012-02-13 08:11:42 51°13.637 2°56.018 9.0539 0.428291 2.470104 -1.326982
2012-02-13 08:11:48 51°13.637 2°56.018 9.0579 0.428291 2.470104 -1.326982
2012-02-13 08:11:53 51°13.637 2°56.018 9.0593 0.428291 2.470147 -1.326982
2012-02-13 08:11:58 51°13.636 2°56.018 9.0606 0.428291 2.470147 -1.326982
2012-02-13 08:12:02 51°13.636 2°56.019 9.0616 0.428291 2.470104 -1.326982
2012-02-13 08:12:08 51°13.636 2°56.019 9.0628 0.428291 2.470147 -1.326982
2012-02-13 08:12:12 51°13.637 2°56.019 9.0623 0.428291 2.470147 -1.326982
2012-02-13 08:12:17 51°13.636 2°56.019 9.0612 0.428291 2.470147 -1.326982
2012-02-13 08:12:22 51°13.636 2°56.019 9.0635 0.428291 2.470147 -1.326982
2012-02-13 08:12:27 51°13.637 2°56.019 9.0635 0.428291 2.470147 -1.326982
2012-02-13 08:12:32 51°13.637 2°56.019 9.0628 0.428291 2.470147 -1.326982
2012-02-13 08:12:37 51°13.637 2°56.019 9.0699 0.428291 2.47019 -1.326982
2012-02-13 08:12:42 51°13.637 2°56.019 9.0799 0.428291 2.470147 -1.326982
2012-02-13 08:12:48 51°13.637 2°56.019 9.0782 0.428291 2.47019 -1.326982
2012-02-13 08:12:52 51°13.637 2°56.019 9.0694 0.428394 2.470778 -1.326982
2012-02-13 08:12:57 51°13.636 2°56.019 9.0695 0.428394 2.470778 -1.326982
2012-02-13 08:13:02 51°13.636 2°56.019 9.0829 0.428188 2.469559 -1.326982
2012-02-13 08:13:07 51°13.636 2°56.019 9.0657 0.428291 2.470147 -1.326982
2012-02-13 08:13:12 51°13.636 2°56.019 9.0869 0.428394 2.470821 -1.326982
2012-02-13 08:13:17 51°13.636 2°56.019 9.0868 0.428291 2.470233 -1.326982
2012-02-13 08:13:22 51°13.636 2°56.019 9.0621 0.428291 2.470233 -1.326982
2012-02-13 08:13:27 51°13.637 2°56.019 9.0561 0.428291 2.470233 -1.326982
2012-02-13 08:13:33 51°13.637 2°56.019 9.0664 0.428291 2.470233 -1.326982
2012-02-13 08:13:37 51°13.636 2°56.019 9.0661 0.428291 2.470233 -1.326982
2012-02-13 08:13:42 51°13.637 2°56.019 9.071 0.428291 2.470233 -1.326982
2012-02-13 08:13:47 51°13.637 2°56.018 9.0701 0.428291 2.470233 -1.326982
2012-02-13 08:13:52 51°13.637 2°56.019 9.0741 0.428291 2.470233 -1.326982
2012-02-13 08:13:57 51°13.636 2°56.018 9.0724 0.428291 2.470233 -1.326982
2012-02-13 08:14:02 51°13.636 2°56.018 9.0764 0.428291 2.470233 -1.326982
2012-02-13 08:14:07 51°13.636 2°56.019 9.0746 0.428394 2.470864 -1.326982
2012-02-13 08:14:12 51°13.636 2°56.018 9.0829 0.428291 2.470276 -1.326982
2012-02-13 08:14:17 51°13.636 2°56.019 9.081 0.428291 2.470233 -1.326982
2012-02-13 08:14:22 51°13.636 2°56.019 9.0681 0.428394 2.470864 -1.326982
2012-02-13 08:14:27 51°13.636 2°56.018 9.0764 0.428394 2.470864 -1.326982
2012-02-13 08:14:32 51°13.636 2°56.018 9.0858 0.428291 2.470233 -1.326982
2012-02-13 08:14:37 51°13.636 2°56.018 9.0987 0.428394 2.470907 -1.326982
2012-02-13 08:14:42 51°13.636 2°56.018 9.1009 0.428291 2.470276 -1.326982
2012-02-13 08:14:47 51°13.636 2°56.018 9.0999 0.428394 2.470907 -1.326982
2012-02-13 08:14:52 51°13.636 2°56.017 9.0985 0.428394 2.47095 -1.326982
2012-02-13 08:14:57 51°13.636 2°56.018 9.0955 0.428394 2.47095 -1.326982
2012-02-13 08:15:02 51°13.636 2°56.018 9.0905 0.428394 2.47095 -1.326982
2012-02-13 08:15:07 51°13.636 2°56.018 9.0833 0.428394 2.470907 -1.326982
2012-02-13 08:15:12 51°13.636 2°56.018 9.087 0.428394 2.470907 -1.326982
2012-02-13 08:15:17 51°13.636 2°56.018 9.0858 0.428291 2.470319 -1.326982
2012-02-13 08:15:22 51°13.636 2°56.019 9.1038 0.428394 2.470907 -1.326982
2012-02-13 08:15:27 51°13.636 2°56.019 9.1034 0.428394 2.470907 -1.326982
2012-02-13 08:15:32 51°13.636 2°56.018 9.0898 0.428394 2.47095 -1.326982
2012-02-13 08:15:37 51°13.636 2°56.019 9.0961 0.428394 2.47095 -1.326982
2012-02-13 08:15:42 51°13.636 2°56.019 9.1024 0.428394 2.470993 -1.326982
2012-02-13 08:15:47 51°13.636 2°56.019 9.1085 0.428394 2.47095 -1.326982
2012-02-13 08:15:52 51°13.636 2°56.019 9.1069 0.428394 2.470993 -1.326982
2012-02-13 08:15:57 51°13.637 2°56.019 9.1018 0.428394 2.470993 -1.326982
2012-02-13 08:16:02 51°13.636 2°56.018 9.091 0.428394 2.470993 -1.326982
2012-02-13 08:16:07 51°13.637 2°56.018 9.0905 0.428394 2.470993 -1.326982
2012-02-13 08:16:12 51°13.637 2°56.019 9.0966 0.428394 2.470993 -1.326982
2012-02-13 08:16:17 51°13.637 2°56.018 9.101 0.428394 2.470993 -1.326982
2012-02-13 08:16:22 51°13.636 2°56.018 9.1025 0.428394 2.470993 -1.326982
2012-02-13 08:16:27 51°13.636 2°56.019 9.1054 0.428394 2.470993 -1.326982
2012-02-13 08:16:32 51°13.636 2°56.019 9.0932 0.428394 2.471036 -1.326982
2012-02-13 08:16:37 51°13.636 2°56.019 9.1108 0.428394 2.471036 -1.326982
2012-02-13 08:16:42 51°13.636 2°56.018 9.0995 0.428394 2.471036 -1.326982
2012-02-13 08:16:47 51°13.636 2°56.018 9.098 0.428497 2.471667 -1.326982
2012-02-13 08:16:52 51°13.636 2°56.018 9.0951 0.428394 2.471079 -1.326982
2012-02-13 08:16:57 51°13.636 2°56.018 9.0947 0.428394 2.471079 -1.326982
2012-02-13 08:17:02 51°13.636 2°56.018 9.0892 0.428394 2.471036 -1.326982
2012-02-13 08:17:07 51°13.636 2°56.018 9.0856 0.428497 2.471667 -1.326982
2012-02-13 08:17:12 51°13.636 2°56.019 9.084 0.428497 2.471667 -1.326982
2012-02-13 08:17:17 51°13.636 2°56.019 9.0902 0.428394 2.471079 -1.326982
2012-02-13 08:17:22 51°13.636 2°56.019 9.0983 0.428394 2.471079 -1.326982
2012-02-13 08:17:27 51°13.636 2°56.018 9.1007 0.428394 2.471079 -1.326982
2012-02-13 08:17:32 51°13.636 2°56.018 9.0987 0.428497 2.47171 -1.326982
2012-02-13 08:17:37 51°13.636 2°56.018 9.0974 0.428394 2.471079 -1.326982
2012-02-13 08:17:42 51°13.636 2°56.019 9.101 0.428497 2.471753 -1.326982
2012-02-13 08:17:46 51°13.636 2°56.019 9.1042 0.428497 2.471753 -1.326982
2012-02-13 08:17:52 51°13.636 2°56.018 9.1071 0.428497 2.471753 -1.326982
2012-02-13 08:17:58 51°13.636 2°56.018 9.1071 0.428497 2.471753 -1.326982
2012-02-13 08:18:02 51°13.636 2°56.018 9.1099 0.428497 2.471753 -1.326982
2012-02-13 08:18:07 51°13.636 2°56.018 9.116 0.428394 2.471165 -1.326982
2012-02-13 08:18:12 51°13.636 2°56.018 9.1114 0.428497 2.471753 -1.326982
2012-02-13 08:18:17 51°13.636 2°56.018 9.1076 0.428497 2.471796 -1.326982
2012-02-13 08:18:22 51°13.636 2°56.019 9.1046 0.428394 2.471165 -1.326982
2012-02-13 08:18:26 51°13.636 2°56.019 9.1071 0.428394 2.471165 -1.326982
2012-02-13 08:18:31 51°13.636 2°56.018 9.1035 0.428394 2.471165 -1.326982
2012-02-13 08:18:38 51°13.636 2°56.018 9.1126 0.428497 2.471796 -1.326982
2012-02-13 08:18:43 51°13.636 2°56.018 9.1104 0.428497 2.471839 -1.326982
2012-02-13 08:18:47 51°13.636 2°56.018 9.1031 0.428497 2.471839 -1.326982
2012-02-13 08:18:52 51°13.636 2°56.018 9.1069 0.428497 2.471839 -1.326982
2012-02-13 08:18:57 51°13.636 2°56.017 9.1067 0.428497 2.471839 -1.326982
2012-02-13 08:19:02 51°13.636 2°56.017 9.1149 0.428497 2.471839 -1.326982
2012-02-13 08:19:07 51°13.636 2°56.017 9.1139 0.428497 2.471882 -1.326982
2012-02-13 08:19:12 51°13.636 2°56.018 9.1275 0.428394 2.471208 -1.326982
2012-02-13 08:19:18 51°13.636 2°56.018 9.1536 0.428497 2.471882 -1.326982
2012-02-13 08:19:23 51°13.636 2°56.018 9.166 0.428497 2.471882 -1.326982
2012-02-13 08:19:27 51°13.636 2°56.018 9.1443 0.428497 2.471882 -1.326982
2012-02-13 08:19:32 51°13.636 2°56.019 9.1599 0.428497 2.471925 -1.326982
2012-02-13 08:19:38 51°13.636 2°56.019 9.1631 0.428394 2.471251 -1.326982
2012-02-13 08:19:42 51°13.636 2°56.018 9.1493 0.428497 2.471925 -1.326982
2012-02-13 08:19:47 51°13.636 2°56.018 9.1582 0.428394 2.471294 -1.326982
2012-02-13 08:19:52 51°13.636 2°56.019 9.1758 0.428497 2.471925 -1.326982
2012-02-13 08:19:58 51°13.636 2°56.019 9.1664 0.428497 2.471925 -1.326982
2012-02-13 08:20:03 51°13.636 2°56.019 9.1853 0.4286 2.472599 -1.326982
2012-02-13 08:20:07 51°13.636 2°56.018 9.1749 0.428497 2.472011 -1.326982
2012-02-13 08:20:12 51°13.636 2°56.019 9.1858 0.428497 2.471968 -1.326982
2012-02-13 08:20:18 51°13.636 2°56.018 9.1693 0.428497 2.472011 -1.326982
2012-02-13 08:20:23 51°13.636 2°56.019 9.1723 0.4286 2.472642 -1.326982
2012-02-13 08:20:27 51°13.636 2°56.018 9.1737 0.4286 2.472642 -1.326982
2012-02-13 08:20:32 51°13.636 2°56.018 9.1192 0.4286 2.472642 -1.326982
2012-02-13 08:20:38 51°13.636 2°56.019 9.1264 0.4286 2.472642 -1.326982
2012-02-13 08:20:43 51°13.636 2°56.019 9.1415 0.428497 2.472097 -1.326982
2012-02-13 08:20:47 51°13.636 2°56.019 9.15 0.4286 2.472771 -1.326982
2012-02-13 08:20:52 51°13.636 2°56.019 9.154 0.4286 2.472814 -1.326982
2012-02-13 08:20:58 51°13.636 2°56.019 9.1393 0.4286 2.472814 -1.326982
2012-02-13 08:21:03 51°13.636 2°56.018 9.1369 0.428497 2.472183 -1.326982
2012-02-13 08:21:07 51°13.636 2°56.019 9.1668 0.4286 2.472814 -1.326982
2012-02-13 08:21:12 51°13.636 2°56.018 9.1718 0.4286 2.472771 -1.326982
2012-02-13 08:21:17 51°13.636 2°56.018 9.1278 0.4286 2.472814 -1.326982
2012-02-13 08:21:23 51°13.636 2°56.018 9.1536 0.428497 2.472226 -1.326982
2012-02-13 08:21:27 51°13.636 2°56.018 9.1721 0.428497 2.472226 -1.326982
2012-02-13 08:21:32 51°13.636 2°56.018 9.1967 0.4286 2.472857 -1.326982
2012-02-13 08:21:38 51°13.636 2°56.019 9.1908 0.4286 2.472857 -1.326982
2012-02-13 08:21:42 51°13.636 2°56.018 9.1752 0.4286 2.472857 -1.326982
2012-02-13 08:21:47 51°13.636 2°56.019 9.1689 0.4286 2.472857 -1.326982
2012-02-13 08:21:52 51°13.636 2°56.019 9.16 0.428497 2.472226 -1.326982
2012-02-13 08:21:57 51°13.636 2°56.019 9.1789 0.428497 2.472226 -1.326982
2012-02-13 08:22:02 51°13.636 2°56.018 9.1882 0.4286 2.472857 -1.326982
2012-02-13 08:22:07 51°13.636 2°56.018 9.1836 0.428703 2.473488 -1.326982
2012-02-13 08:22:12 51°13.636 2°56.019 9.1778 0.4286 2.4729 -1.326982
2012-02-13 08:22:18 51°13.636 2°56.019 9.1673 0.4286 2.4729 -1.326982
2012-02-13 08:22:22 51°13.636 2°56.019 9.1814 0.4286 2.472943 -1.326982
2012-02-13 08:22:27 51°13.636 2°56.019 9.1896 0.4286 2.472943 -1.326982
2012-02-13 08:22:32 51°13.636 2°56.019 9.1821 0.4286 2.472943 -1.326982
2012-02-13 08:22:38 51°13.636 2°56.019 9.1873 0.428703 2.473574 -1.326982
2012-02-13 08:22:42 51°13.636 2°56.019 9.2249 0.428703 2.473574 -1.326982
2012-02-13 08:22:47 51°13.636 2°56.019 9.1934 0.428703 2.473617 -1.326982
2012-02-13 08:22:52 51°13.636 2°56.019 9.2087 0.428703 2.473617 -1.326982
2012-02-13 08:22:58 51°13.636 2°56.019 9.2191 0.428703 2.473617 -1.326982
2012-02-13 08:23:02 51°13.636 2°56.019 9.216 0.4286 2.472986 -1.326982
2012-02-13 08:23:07 51°13.636 2°56.019 9.2003 0.4286 2.472986 -1.326982
2012-02-13 08:23:12 51°13.636 2°56.019 9.1881 0.428703 2.47366 -1.326982
2012-02-13 08:23:17 51°13.636 2°56.019 9.1844 0.4286 2.473029 -1.326982
2012-02-13 08:23:22 51°13.636 2°56.019 9.1744 0.428703 2.47366 -1.326982
2012-02-13 08:23:27 51°13.636 2°56.019 9.1972 0.428703 2.47366 -1.326982
2012-02-13 08:23:32 51°13.636 2°56.019 9.1954 0.428703 2.47366 -1.326982
2012-02-13 08:23:37 51°13.636 2°56.02 9.1884 0.4286 2.473072 -1.326982
2012-02-13 08:23:42 51°13.636 2°56.019 9.186 0.4286 2.473072 -1.326982
2012-02-13 08:23:47 51°13.636 2°56.019 9.223 0.4286 2.473029 -1.326982
2012-02-13 08:23:52 51°13.636 2°56.019 9.211 0.428703 2.473704 -1.326982
2012-02-13 08:23:57 51°13.636 2°56.02 9.1931 0.428703 2.473704 -1.326982
2012-02-13 08:24:02 51°13.636 2°56.02 9.2081 0.4286 2.473072 -1.326982
2012-02-13 08:24:07 51°13.636 2°56.019 9.204 0.428703 2.473747 -1.326982
2012-02-13 08:24:12 51°13.636 2°56.019 9.2128 0.4286 2.473116 -1.326982
2012-02-13 08:24:17 51°13.636 2°56.019 9.2138 0.428703 2.473747 -1.326982
2012-02-13 08:24:22 51°13.636 2°56.019 9.2103 0.428703 2.473747 -1.326982
2012-02-13 08:24:27 51°13.636 2°56.019 9.203 0.428703 2.473747 -1.326982
2012-02-13 08:24:32 51°13.636 2°56.019 9.2015 0.428703 2.473747 -1.326982
2012-02-13 08:24:37 51°13.636 2°56.019 9.1956 0.428703 2.47379 -1.326982
2012-02-13 08:24:42 51°13.636 2°56.019 9.1953 0.4286 2.473245 -1.326982
2012-02-13 08:24:47 51°13.636 2°56.019 9.1987 0.4286 2.473288 -1.326982
2012-02-13 08:24:52 51°13.636 2°56.019 9.1949 0.428703 2.473919 -1.326982
2012-02-13 08:24:57 51°13.636 2°56.019 9.1875 0.428703 2.473919 -1.326982
2012-02-13 08:25:02 51°13.636 2°56.019 9.1888 0.428703 2.473833 -1.326982
2012-02-13 08:25:07 51°13.636 2°56.019 9.1782 0.428703 2.473833 -1.326982
2012-02-13 08:25:12 51°13.636 2°56.019 9.1874 0.428703 2.473833 -1.326982
2012-02-13 08:25:17 51°13.636 2°56.019 9.1962 0.428703 2.473876 -1.326982
2012-02-13 08:25:22 51°13.636 2°56.019 9.2003 0.4286 2.473288 -1.326982
2012-02-13 08:25:27 51°13.636 2°56.019 9.1993 0.4286 2.473288 -1.326982
2012-02-13 08:25:32 51°13.636 2°56.019 9.1972 0.428703 2.473962 -1.326982
2012-02-13 08:25:37 51°13.636 2°56.019 9.1919 0.428703 2.473962 -1.326982
2012-02-13 08:25:42 51°13.635 2°56.019 9.1838 0.428703 2.473919 -1.326982
2012-02-13 08:25:47 51°13.635 2°56.019 9.1914 0.4286 2.473288 -1.326982
2012-02-13 08:25:52 51°13.635 2°56.019 9.2034 0.428703 2.473919 -1.326982
2012-02-13 08:25:57 51°13.635 2°56.019 9.2178 0.428703 2.473919 -1.326982
2012-02-13 08:26:02 51°13.635 2°56.019 9.218 0.428703 2.473919 -1.326982
2012-02-13 08:26:07 51°13.635 2°56.019 9.2135 0.428703 2.473962 -1.326982
2012-02-13 08:26:12 51°13.635 2°56.019 9.2073 0.428703 2.473962 -1.326982
2012-02-13 08:26:17 51°13.635 2°56.019 9.2041 0.4286 2.473374 -1.326982
2012-02-13 08:26:22 51°13.635 2°56.019 9.2056 0.4286 2.473331 -1.326982
2012-02-13 08:26:27 51°13.635 2°56.02 9.2061 0.4286 2.473331 -1.326982
2012-02-13 08:26:32 51°13.635 2°56.019 9.2056 0.428703 2.473962 -1.326982
2012-02-13 08:26:37 51°13.635 2°56.019 9.2036 0.428703 2.473962 -1.326982
2012-02-13 08:26:42 51°13.635 2°56.019 9.1995 0.428703 2.474005 -1.326982
2012-02-13 08:26:47 51°13.635 2°56.019 9.2145 0.4286 2.473374 -1.326982
2012-02-13 08:26:52 51°13.635 2°56.019 9.2068 0.428703 2.474005 -1.326982
2012-02-13 08:26:57 51°13.635 2°56.02 9.2066 0.428703 2.474005 -1.326982
2012-02-13 08:27:02 51°13.635 2°56.02 9.1931 0.428703 2.474048 -1.326982
2012-02-13 08:27:07 51°13.635 2°56.019 9.1927 0.428703 2.474048 -1.326982
2012-02-13 08:27:12 51°13.635 2°56.019 9.1983 0.428703 2.474048 -1.326982
2012-02-13 08:27:17 51°13.635 2°56.019 9.1956 0.428703 2.474091 -1.358416
2012-02-13 08:27:22 51°13.635 2°56.019 9.1977 0.428703 2.474091 -1.326982
2012-02-13 08:27:27 51°13.635 2°56.019 9.2046 0.428703 2.474091 -1.326982
2012-02-13 08:27:32 51°13.635 2°56.019 9.2009 0.4286 2.47346 -1.326982
2012-02-13 08:27:37 51°13.635 2°56.019 9.2059 0.4286 2.47346 -1.326982
2012-02-13 08:27:42 51°13.635 2°56.019 9.1954 0.428703 2.474091 -1.326982
2012-02-13 08:27:47 51°13.635 2°56.019 9.2111 0.428703 2.474091 -1.326982
2012-02-13 08:27:52 51°13.635 2°56.019 9.218 0.428703 2.474134 -1.326982
2012-02-13 08:27:57 51°13.635 2°56.019 9.2371 0.428703 2.474134 -1.326982
2012-02-13 08:28:02 51°13.635 2°56.019 9.2463 0.4286 2.473503 -1.326982
2012-02-13 08:28:07 51°13.635 2°56.019 9.2388 0.428703 2.474134 -1.326982
2012-02-13 08:28:12 51°13.635 2°56.019 9.2397 0.428703 2.474177 -1.326982
2012-02-13 08:28:17 51°13.635 2°56.019 9.2353 0.428703 2.474177 -1.326982
2012-02-13 08:28:22 51°13.635 2°56.019 9.2148 0.428703 2.474177 -1.326982
2012-02-13 08:28:27 51°13.635 2°56.019 9.2217 0.428703 2.474177 -1.326982
2012-02-13 08:28:32 51°13.635 2°56.019 9.2167 0.428703 2.474177 -1.326982
2012-02-13 08:28:37 51°13.635 2°56.019 9.2216 0.428703 2.474177 -1.326982
2012-02-13 08:28:42 51°13.635 2°56.019 9.2346 0.428703 2.474221 -1.326982
2012-02-13 08:28:47 51°13.636 2°56.019 9.2307 0.428703 2.474264 -1.326982
2012-02-13 08:28:52 51°13.636 2°56.018 9.2312 0.428703 2.474264 -1.326982
2012-02-13 08:28:57 51°13.635 2°56.019 9.2372 0.428703 2.474264 -1.326982
2012-02-13 08:29:02 51°13.635 2°56.019 9.2299 0.428703 2.474264 -1.326982
2012-02-13 08:29:07 51°13.636 2°56.019 9.22 0.428703 2.474264 -1.326982
2012-02-13 08:29:12 51°13.636 2°56.019 9.2261 0.428703 2.474264 -1.326982
2012-02-13 08:29:17 51°13.636 2°56.019 9.2308 0.428703 2.474307 -1.326982
2012-02-13 08:29:22 51°13.636 2°56.019 9.2319 0.428806 2.474938 -1.326982
2012-02-13 08:29:27 51°13.636 2°56.019 9.2285 0.428806 2.474938 -1.326982
2012-02-13 08:29:32 51°13.636 2°56.018 9.2191 0.428703 2.474307 -1.326982
2012-02-13 08:29:37 51°13.636 2°56.018 9.2266 0.428703 2.47435 -1.326982
2012-02-13 08:29:42 51°13.636 2°56.018 9.2441 0.428703 2.47435 -1.326982
2012-02-13 08:29:47 51°13.636 2°56.018 9.2419 0.428703 2.47435 -1.326982
2012-02-13 08:29:52 51°13.636 2°56.018 9.2394 0.428703 2.474393 -1.326982
2012-02-13 08:29:57 51°13.636 2°56.018 9.2354 0.428703 2.474393 -1.326982
2012-02-13 08:30:02 51°13.636 2°56.018 9.238 0.428703 2.474393 -1.326982
2012-02-13 08:30:07 51°13.636 2°56.018 9.2394 0.428703 2.474436 -1.326982
2012-02-13 08:30:12 51°13.636 2°56.018 9.2396 0.428703 2.474436 -1.326982
2012-02-13 08:30:17 51°13.636 2°56.018 9.2394 0.428703 2.474479 -1.326982
2012-02-13 08:30:22 51°13.636 2°56.018 9.2395 0.428703 2.474479 -1.326982
2012-02-13 08:30:27 51°13.636 2°56.018 9.2475 0.428703 2.474479 -1.326982
2012-02-13 08:30:32 51°13.636 2°56.018 9.2515 0.428703 2.474479 -1.326982
2012-02-13 08:30:37 51°13.636 2°56.018 9.2542 0.428703 2.474522 -1.326982
2012-02-13 08:30:42 51°13.636 2°56.018 9.2502 0.428806 2.47511 -1.326982
2012-02-13 08:30:47 51°13.636 2°56.018 9.2629 0.428806 2.475154 -1.326982
2012-02-13 08:30:52 51°13.636 2°56.018 9.2268 0.428703 2.474609 -1.326982
2012-02-13 08:30:57 51°13.636 2°56.018 9.2277 0.428703 2.474609 -1.326982
2012-02-13 08:31:02 51°13.636 2°56.018 9.244 0.428703 2.474609 -1.326982
2012-02-13 08:31:07 51°13.636 2°56.018 9.2483 0.428703 2.474609 -1.326982
2012-02-13 08:31:12 51°13.636 2°56.018 9.2514 0.428806 2.47524 -1.326982
2012-02-13 08:31:17 51°13.636 2°56.019 9.259 0.428703 2.474652 -1.326982
2012-02-13 08:31:22 51°13.636 2°56.019 9.2612 0.428703 2.474695 -1.326982
2012-02-13 08:31:27 51°13.636 2°56.019 9.2513 0.428703 2.474695 -1.326982
2012-02-13 08:31:32 51°13.636 2°56.018 9.2593 0.428703 2.474738 -1.326982
2012-02-13 08:31:37 51°13.636 2°56.018 9.2516 0.428806 2.475326 -1.326982
2012-02-13 08:31:42 51°13.636 2°56.018 9.2585 0.428703 2.474738 -1.326982
2012-02-13 08:31:47 51°13.636 2°56.018 9.2527 0.428703 2.474695 -1.326982
2012-02-13 08:31:52 51°13.636 2°56.018 9.2651 0.428703 2.474738 -1.326982
2012-02-13 08:31:57 51°13.636 2°56.018 9.2577 0.428703 2.474738 -1.326982
2012-02-13 08:32:02 51°13.636 2°56.018 9.2567 0.428703 2.474738 -1.326982
2012-02-13 08:32:07 51°13.636 2°56.018 9.2567 0.428703 2.474781 -1.326982
2012-02-13 08:32:12 51°13.636 2°56.018 9.2549 0.428703 2.474781 -1.326982
2012-02-13 08:32:17 51°13.636 2°56.018 9.2514 0.428703 2.474781 -1.326982
2012-02-13 08:32:22 51°13.636 2°56.018 9.2646 0.428703 2.474824 -1.326982
2012-02-13 08:32:27 51°13.636 2°56.018 9.2675 0.428703 2.474824 -1.326982
2012-02-13 08:32:32 51°13.636 2°56.018 9.2668 0.428703 2.474867 -1.326982
2012-02-13 08:32:37 51°13.636 2°56.017 9.2642 0.428703 2.474824 -1.326982
2012-02-13 08:32:42 51°13.636 2°56.017 9.2635 0.428806 2.475455 -1.326982
2012-02-13 08:32:47 51°13.636 2°56.017 9.2606 0.428806 2.475499 -1.326982
2012-02-13 08:32:52 51°13.636 2°56.017 9.2597 0.428703 2.474867 -1.326982
2012-02-13 08:32:57 51°13.636 2°56.018 9.2617 0.428703 2.474867 -1.326982
2012-02-13 08:33:02 51°13.636 2°56.017 9.2657 0.428703 2.47491 -1.326982
2012-02-13 08:33:07 51°13.636 2°56.017 9.2608 0.428806 2.475542 -1.326982
2012-02-13 08:33:12 51°13.636 2°56.018 9.3069 0.428703 2.474954 -1.326982
2012-02-13 08:33:17 51°13.636 2°56.017 9.2871 0.428703 2.474954 -1.326982
2012-02-13 08:33:22 51°13.636 2°56.017 9.2826 0.428806 2.475585 -1.326982
2012-02-13 08:33:27 51°13.636 2°56.017 9.2789 0.428806 2.475585 -1.326982
2012-02-13 08:33:32 51°13.637 2°56.017 9.2745 0.428806 2.475628 -1.326982
2012-02-13 08:33:37 51°13.636 2°56.017 9.2739 0.428806 2.475628 -1.326982
2012-02-13 08:33:42 51°13.636 2°56.017 9.2677 0.428703 2.474997 -1.326982
2012-02-13 08:33:47 51°13.636 2°56.017 9.2661 0.428806 2.475628 -1.326982
2012-02-13 08:33:52 51°13.636 2°56.017 9.2746 0.428703 2.47504 -1.326982
2012-02-13 08:33:57 51°13.636 2°56.017 9.2742 0.428703 2.47504 -1.326982
2012-02-13 08:34:02 51°13.637 2°56.017 9.2735 0.428806 2.475671 -1.326982
2012-02-13 08:34:07 51°13.636 2°56.017 9.269 0.428703 2.47504 -1.326982
2012-02-13 08:34:12 51°13.636 2°56.017 9.2706 0.428703 2.47504 -1.326982
2012-02-13 08:34:17 51°13.636 2°56.017 9.2761 0.428703 2.475083 -1.326982
2012-02-13 08:34:22 51°13.636 2°56.018 9.2803 0.428806 2.475714 -1.326982
2012-02-13 08:34:27 51°13.636 2°56.018 9.278 0.428806 2.475714 -1.326982
2012-02-13 08:34:32 51°13.636 2°56.018 9.2749 0.428806 2.475714 -1.326982
2012-02-13 08:34:37 51°13.636 2°56.018 9.2825 0.428703 2.475083 -1.326982
2012-02-13 08:34:42 51°13.636 2°56.018 9.2838 0.428806 2.475714 -1.326982
2012-02-13 08:34:47 51°13.636 2°56.018 9.2612 0.428806 2.475714 -1.326982
2012-02-13 08:34:52 51°13.636 2°56.018 9.2733 0.428703 2.475126 -1.326982
2012-02-13 08:34:57 51°13.636 2°56.018 9.275 0.428703 2.475126 -1.326982
2012-02-13 08:35:02 51°13.636 2°56.018 9.2943 0.428806 2.475757 -1.326982
2012-02-13 08:35:07 51°13.636 2°56.018 9.2802 0.428806 2.475757 -1.326982
2012-02-13 08:35:12 51°13.637 2°56.018 9.2841 0.428806 2.475801 -1.326982
2012-02-13 08:35:17 51°13.636 2°56.018 9.2807 0.428703 2.475212 -1.326982
2012-02-13 08:35:22 51°13.636 2°56.018 9.2865 0.428703 2.475212 -1.326982
2012-02-13 08:35:27 51°13.636 2°56.018 9.3038 0.428703 2.475212 -1.326982
2012-02-13 08:35:32 51°13.636 2°56.018 9.2828 0.428806 2.475844 -1.326982
2012-02-13 08:35:37 51°13.636 2°56.018 9.2736 0.428806 2.475844 -1.326982
2012-02-13 08:35:42 51°13.637 2°56.018 9.2888 0.428703 2.475212 -1.326982
2012-02-13 08:35:47 51°13.636 2°56.018 9.27 0.428703 2.475255 -1.326982
2012-02-13 08:35:52 51°13.636 2°56.018 9.2659 0.428703 2.475255 -1.326982
2012-02-13 08:35:57 51°13.637 2°56.018 9.2741 0.428703 2.475255 -1.326982
2012-02-13 08:36:02 51°13.637 2°56.018 9.2751 0.428703 2.475255 -1.326982
2012-02-13 08:36:07 51°13.637 2°56.018 9.2775 0.428703 2.475255 -1.326982
2012-02-13 08:36:12 51°13.636 2°56.018 9.2745 0.428806 2.475887 -1.326982
2012-02-13 08:36:17 51°13.636 2°56.018 9.2845 0.428703 2.475299 -1.326982
2012-02-13 08:36:22 51°13.636 2°56.018 9.3076 0.428806 2.475887 -1.326982
2012-02-13 08:36:27 51°13.636 2°56.018 9.3237 0.428806 2.475887 -1.326982
2012-02-13 08:36:32 51°13.636 2°56.018 9.32 0.428806 2.47593 -1.326982
2012-02-13 08:36:37 51°13.636 2°56.018 9.3118 0.428806 2.47593 -1.326982
2012-02-13 08:36:42 51°13.636 2°56.018 9.3271 0.428703 2.475342 -1.326982
2012-02-13 08:36:47 51°13.636 2°56.018 9.3205 0.428806 2.47593 -1.326982
2012-02-13 08:36:52 51°13.636 2°56.018 9.3336 0.428806 2.475973 -1.326982
2012-02-13 08:36:57 51°13.636 2°56.018 9.3274 0.428806 2.475973 -1.326982
2012-02-13 08:37:02 51°13.636 2°56.018 9.3383 0.428806 2.476016 -1.326982
2012-02-13 08:37:07 51°13.636 2°56.018 9.332 0.428703 2.475385 -1.326982
2012-02-13 08:37:12 51°13.636 2°56.018 9.3242 0.428703 2.475385 -1.326982
2012-02-13 08:37:17 51°13.636 2°56.018 9.291 0.428806 2.476016 -1.326982
2012-02-13 08:37:22 51°13.636 2°56.018 9.3 0.428806 2.476016 -1.326982
2012-02-13 08:37:27 51°13.636 2°56.018 9.3189 0.428806 2.476016 -1.326982
2012-02-13 08:37:32 51°13.636 2°56.018 9.3295 0.428806 2.47606 -1.326982
2012-02-13 08:37:37 51°13.636 2°56.018 9.3025 0.428703 2.475428 -1.326982
2012-02-13 08:37:42 51°13.636 2°56.018 9.3187 0.428806 2.47606 -1.326982
2012-02-13 08:37:47 51°13.636 2°56.018 9.3289 0.428806 2.476103 -1.326982
2012-02-13 08:37:52 51°13.636 2°56.018 9.3349 0.428703 2.475471 -1.326982
2012-02-13 08:37:57 51°13.636 2°56.018 9.3373 0.428703 2.475471 -1.326982
2012-02-13 08:38:02 51°13.636 2°56.018 9.3238 0.428806 2.476103 -1.326982
2012-02-13 08:38:07 51°13.636 2°56.018 9.3352 0.428703 2.475471 -1.326982
2012-02-13 08:38:12 51°13.636 2°56.018 9.3314 0.428703 2.475471 -1.326982
2012-02-13 08:38:17 51°13.636 2°56.018 9.3168 0.428806 2.476146 -1.326982
2012-02-13 08:38:22 51°13.636 2°56.018 9.3286 0.428703 2.475514 -1.326982
2012-02-13 08:38:27 51°13.636 2°56.018 9.3348 0.428703 2.475514 -1.326982
2012-02-13 08:38:32 51°13.636 2°56.018 9.334 0.428806 2.476146 -1.326982
2012-02-13 08:38:37 51°13.636 2°56.018 9.3196 0.428703 2.475514 -1.326982
2012-02-13 08:38:42 51°13.637 2°56.018 9.3377 0.428806 2.476146 -1.326982
2012-02-13 08:38:47 51°13.637 2°56.018 9.3361 0.428806 2.476189 -1.326982
2012-02-13 08:38:51 51°13.637 2°56.018 9.3223 0.428806 2.476189 -1.326982
2012-02-13 08:38:57 51°13.636 2°56.019 9.312 0.428806 2.476189 -1.326982
2012-02-13 08:39:02 51°13.636 2°56.019 9.3468 0.428806 2.476189 -1.326982
2012-02-13 08:39:07 51°13.637 2°56.018 9.3165 0.428909 2.476821 -1.326982
2012-02-13 08:39:12 51°13.637 2°56.018 9.3009 0.428806 2.476232 -1.326982
2012-02-13 08:39:17 51°13.636 2°56.018 9.3106 0.428806 2.476232 -1.326982
2012-02-13 08:39:22 51°13.636 2°56.019 9.3275 0.428703 2.475644 -1.326982
2012-02-13 08:39:27 51°13.637 2°56.018 9.337 0.428703 2.475644 -1.326982
2012-02-13 08:39:32 51°13.636 2°56.018 9.3255 0.428806 2.476275 -1.326982
2012-02-13 08:39:37 51°13.636 2°56.018 9.3434 0.428806 2.476275 -1.326982
2012-02-13 08:39:42 51°13.637 2°56.018 9.3324 0.428806 2.476319 -1.326982
2012-02-13 08:39:47 51°13.637 2°56.018 9.3374 0.428806 2.476319 -1.326982
2012-02-13 08:39:52 51°13.637 2°56.018 9.3535 0.428703 2.47573 -1.326982
2012-02-13 08:39:57 51°13.637 2°56.018 9.338 0.428703 2.47573 -1.326982
2012-02-13 08:40:02 51°13.637 2°56.018 9.3452 0.428703 2.47573 -1.326982
2012-02-13 08:40:07 51°13.637 2°56.018 9.3799 0.428806 2.476405 -1.326982
2012-02-13 08:40:12 51°13.637 2°56.018 9.3636 0.428703 2.475773 -1.326982
2012-02-13 08:40:17 51°13.637 2°56.018 9.3614 0.428806 2.476405 -1.326982
2012-02-13 08:40:22 51°13.637 2°56.018 9.3542 0.428806 2.476448 -1.326982
2012-02-13 08:40:27 51°13.637 2°56.018 9.3628 0.428806 2.476448 -1.326982
2012-02-13 08:40:32 51°13.637 2°56.018 9.3527 0.428806 2.476448 -1.326982
2012-02-13 08:40:37 51°13.637 2°56.018 9.3436 0.428806 2.476448 -1.326982
2012-02-13 08:40:42 51°13.637 2°56.018 9.3456 0.428806 2.476491 -1.326982
2012-02-13 08:40:47 51°13.636 2°56.018 9.3476 0.428806 2.476491 -1.326982
2012-02-13 08:40:52 51°13.636 2°56.018 9.3455 0.428806 2.476534 -1.326982
2012-02-13 08:40:58 51°13.636 2°56.019 9.3414 0.428806 2.476534 -1.326982
2012-02-13 08:41:02 51°13.636 2°56.018 9.3408 0.428806 2.476534 -1.326982
2012-02-13 08:41:07 51°13.636 2°56.018 9.3395 0.428806 2.476534 -1.326982
2012-02-13 08:41:12 51°13.635 2°56.018 9.3383 0.428806 2.476534 -1.326982
2012-02-13 08:41:17 51°13.636 2°56.019 9.3395 0.428806 2.476578 -1.326982
2012-02-13 08:41:22 51°13.635 2°56.019 9.3372 0.428806 2.476578 -1.326982
2012-02-13 08:41:27 51°13.635 2°56.019 9.3299 0.428806 2.476578 -1.326982
2012-02-13 08:41:32 51°13.635 2°56.019 9.337 0.428703 2.475946 -1.326982
2012-02-13 08:41:37 51°13.635 2°56.019 9.3504 0.428703 2.475989 -1.326982
2012-02-13 08:41:43 51°13.635 2°56.019 9.3412 0.428806 2.476621 -1.326982
2012-02-13 08:41:47 51°13.635 2°56.019 9.3336 0.428806 2.476621 -1.326982
2012-02-13 08:41:52 51°13.636 2°56.019 9.3384 0.428703 2.476032 -1.326982
2012-02-13 08:41:57 51°13.635 2°56.019 9.3406 0.428703 2.476032 -1.326982
2012-02-13 08:42:02 51°13.635 2°56.019 9.3389 0.428806 2.476664 -1.326982
2012-02-13 08:42:07 51°13.635 2°56.019 9.3444 0.428806 2.476707 -1.326982
2012-02-13 08:42:12 51°13.635 2°56.019 9.356 0.428806 2.476707 -1.326982
2012-02-13 08:42:17 51°13.635 2°56.019 9.3513 0.428806 2.476707 -1.326982
2012-02-13 08:42:22 51°13.635 2°56.019 9.351 0.428806 2.47675 -1.326982
2012-02-13 08:42:28 51°13.635 2°56.019 9.3473 0.428806 2.47675 -1.326982
2012-02-13 08:42:32 51°13.636 2°56.019 9.3338 0.428703 2.476119 -1.326982
2012-02-13 08:42:37 51°13.635 2°56.019 9.3398 0.428703 2.476075 -1.326982
2012-02-13 08:42:42 51°13.635 2°56.019 9.3313 0.428806 2.47675 -1.326982
2012-02-13 08:42:47 51°13.635 2°56.019 9.3686 0.428806 2.476794 -1.326982
2012-02-13 08:42:52 51°13.635 2°56.019 9.3732 0.428806 2.476794 -1.326982
2012-02-13 08:42:57 51°13.635 2°56.019 9.3665 0.428806 2.476794 -1.326982
2012-02-13 08:43:02 51°13.635 2°56.019 9.3634 0.428806 2.476837 -1.326982
2012-02-13 08:43:07 51°13.635 2°56.02 9.3658 0.428703 2.476205 -1.326982
2012-02-13 08:43:12 51°13.635 2°56.019 9.3668 0.428703 2.476205 -1.326982
2012-02-13 08:43:17 51°13.635 2°56.019 9.3637 0.428703 2.476205 -1.326982
2012-02-13 08:43:22 51°13.635 2°56.019 9.3692 0.428806 2.476837 -1.326982
2012-02-13 08:43:27 51°13.635 2°56.019 9.3589 0.428806 2.476837 -1.326982
2012-02-13 08:43:32 51°13.635 2°56.019 9.3473 0.428806 2.476837 -1.326982
2012-02-13 08:43:37 51°13.635 2°56.019 9.3655 0.428806 2.47688 -1.326982
2012-02-13 08:43:42 51°13.635 2°56.019 9.3718 0.428806 2.476923 -1.326982
2012-02-13 08:43:47 51°13.635 2°56.019 9.357 0.428703 2.476291 -1.326982
2012-02-13 08:43:52 51°13.635 2°56.019 9.3567 0.428703 2.476291 -1.326982
2012-02-13 08:43:57 51°13.635 2°56.019 9.3558 0.428703 2.476291 -1.326982
2012-02-13 08:44:02 51°13.635 2°56.019 9.3523 0.428703 2.476291 -1.326982
2012-02-13 08:44:07 51°13.635 2°56.019 9.3513 0.428703 2.476291 -1.326982
2012-02-13 08:44:12 51°13.636 2°56.019 9.3548 0.428703 2.476291 -1.326982
2012-02-13 08:44:17 51°13.635 2°56.019 9.3588 0.428703 2.476291 -1.326982
2012-02-13 08:44:22 51°13.636 2°56.019 9.3604 0.428806 2.476966 -1.326982
2012-02-13 08:44:27 51°13.635 2°56.019 9.361 0.428806 2.476966 -1.326982
2012-02-13 08:44:32 51°13.635 2°56.019 9.3604 0.428806 2.476966 -1.326982
2012-02-13 08:44:37 51°13.636 2°56.019 9.359 0.428703 2.476335 -1.326982
2012-02-13 08:44:42 51°13.635 2°56.019 9.3594 0.428806 2.476966 -1.326982
2012-02-13 08:44:47 51°13.635 2°56.019 9.3543 0.428806 2.476966 -1.326982
2012-02-13 08:44:52 51°13.635 2°56.019 9.3421 0.428806 2.477009 -1.326982
2012-02-13 08:44:57 51°13.636 2°56.019 9.3342 0.428806 2.477009 -1.326982
2012-02-13 08:45:02 51°13.636 2°56.019 9.3446 0.428703 2.476335 -1.326982
2012-02-13 08:45:07 51°13.635 2°56.019 9.3657 0.428703 2.476378 -1.326982
2012-02-13 08:45:13 51°13.635 2°56.019 9.3662 0.428703 2.476378 -1.326982
2012-02-13 08:45:17 51°13.635 2°56.019 9.3583 0.428806 2.477009 -1.326982
2012-02-13 08:45:22 51°13.635 2°56.019 9.3589 0.428703 2.476421 -1.326982
2012-02-13 08:45:27 51°13.635 2°56.019 9.3636 0.428703 2.476421 -1.326982
2012-02-13 08:45:32 51°13.635 2°56.018 9.3647 0.428806 2.477053 -1.326982
2012-02-13 08:45:37 51°13.635 2°56.019 9.3611 0.428806 2.477053 -1.326982
2012-02-13 08:45:42 51°13.635 2°56.019 9.3605 0.428806 2.477053 -1.326982
2012-02-13 08:45:47 51°13.635 2°56.019 9.3576 0.428703 2.476464 -1.326982
2012-02-13 08:45:52 51°13.635 2°56.019 9.3579 0.428703 2.476464 -1.326982
2012-02-13 08:45:57 51°13.635 2°56.019 9.3677 0.428703 2.476464 -1.326982
2012-02-13 08:46:02 51°13.636 2°56.018 9.3987 0.428806 2.477096 -1.326982
2012-02-13 08:46:07 51°13.635 2°56.018 9.3615 0.428806 2.477139 -1.326982
2012-02-13 08:46:12 51°13.635 2°56.019 9.3607 0.428806 2.477139 -1.326982
2012-02-13 08:46:17 51°13.635 2°56.018 9.3602 0.428703 2.47655 -1.326982
2012-02-13 08:46:22 51°13.635 2°56.018 9.3757 0.428703 2.47655 -1.326982
2012-02-13 08:46:27 51°13.635 2°56.018 9.3831 0.428703 2.47655 -1.326982
2012-02-13 08:46:32 51°13.635 2°56.018 9.3813 0.428806 2.477225 -1.326982
2012-02-13 08:46:37 51°13.635 2°56.018 9.4081 0.428703 2.476637 -1.326982
2012-02-13 08:46:42 51°13.635 2°56.019 9.4117 0.428806 2.477269 -1.326982
2012-02-13 08:46:48 51°13.635 2°56.019 9.4099 0.428703 2.476637 -1.326982
2012-02-13 08:46:52 51°13.635 2°56.018 9.4063 0.428703 2.476723 -1.326982
2012-02-13 08:46:57 51°13.635 2°56.018 9.4056 0.428703 2.476723 -1.326982
2012-02-13 08:47:02 51°13.635 2°56.018 9.4119 0.428703 2.476723 -1.326982
2012-02-13 08:47:07 51°13.635 2°56.019 9.4056 0.428806 2.477355 -1.326982
2012-02-13 08:47:12 51°13.635 2°56.018 9.4032 0.428703 2.476766 -1.326982
2012-02-13 08:47:17 51°13.635 2°56.018 9.4027 0.428703 2.47681 -1.326982
2012-02-13 08:47:22 51°13.635 2°56.018 9.4101 0.428806 2.477485 -1.326982
2012-02-13 08:47:27 51°13.635 2°56.018 9.4084 0.428806 2.477485 -1.326982
2012-02-13 08:47:32 51°13.635 2°56.019 9.4196 0.428703 2.476853 -1.326982
2012-02-13 08:47:37 51°13.635 2°56.019 9.3964 0.428703 2.476896 -1.326982
2012-02-13 08:47:41 51°13.635 2°56.019 9.402 0.428703 2.476896 -1.326982
2012-02-13 08:47:47 51°13.635 2°56.019 9.399 0.428806 2.477528 -1.326982
2012-02-13 08:47:52 51°13.635 2°56.019 9.3966 0.428806 2.477571 -1.326982
2012-02-13 08:47:58 51°13.635 2°56.019 9.398 0.428806 2.477571 -1.326982
2012-02-13 08:48:02 51°13.634 2°56.019 9.3961 0.428806 2.477614 -1.326982
2012-02-13 08:48:07 51°13.635 2°56.019 9.3904 0.428703 2.476983 -1.326982
2012-02-13 08:48:12 51°13.635 2°56.019 9.3846 0.428806 2.477614 -1.326982
2012-02-13 08:48:18 51°13.635 2°56.019 9.3928 0.428703 2.477026 -1.326982
2012-02-13 08:48:22 51°13.635 2°56.019 9.395 0.428703 2.477069 -1.326982
2012-02-13 08:48:28 51°13.635 2°56.018 9.3936 0.428703 2.477069 -1.326982
2012-02-13 08:48:33 51°13.635 2°56.018 9.3953 0.428806 2.477701 -1.326982
2012-02-13 08:48:37 51°13.635 2°56.018 9.3965 0.428806 2.477701 -1.326982
2012-02-13 08:48:42 51°13.636 2°56.018 9.3966 0.428806 2.477701 -1.326982
2012-02-13 08:48:47 51°13.635 2°56.018 9.3976 0.428806 2.477744 -1.326982
2012-02-13 08:48:52 51°13.635 2°56.019 9.3997 0.428703 2.477155 -1.326982
2012-02-13 08:48:57 51°13.635 2°56.019 9.4165 0.428703 2.477155 -1.326982
2012-02-13 08:49:02 51°13.636 2°56.018 9.4021 0.428806 2.477787 -1.326982
2012-02-13 08:49:08 51°13.635 2°56.018 9.4036 0.428806 2.477831 -1.326982
2012-02-13 08:49:12 51°13.635 2°56.018 9.3988 0.428806 2.477831 -1.326982
2012-02-13 08:49:17 51°13.636 2°56.018 9.3973 0.428806 2.477831 -1.326982
2012-02-13 08:49:22 51°13.636 2°56.018 9.3981 0.428703 2.477199 -1.326982
2012-02-13 08:49:28 51°13.636 2°56.018 9.3964 0.428703 2.477199 -1.326982
2012-02-13 08:49:33 51°13.636 2°56.018 9.3925 0.428806 2.477874 -1.326982
2012-02-13 08:49:37 51°13.636 2°56.018 9.3991 0.428806 2.477874 -1.326982
2012-02-13 08:49:42 51°13.636 2°56.018 9.4316 0.428703 2.477285 -1.326982
2012-02-13 08:49:47 51°13.636 2°56.019 9.423 0.428703 2.477328 -1.326982
2012-02-13 08:49:53 51°13.636 2°56.018 9.4148 0.428806 2.477917 -1.326982
2012-02-13 08:49:57 51°13.636 2°56.018 9.4142 0.428806 2.477917 -1.326982
2012-02-13 08:50:02 51°13.636 2°56.018 9.415 0.428806 2.47796 -1.326982
2012-02-13 08:50:07 51°13.636 2°56.018 9.4142 0.428703 2.477371 -1.326982
2012-02-13 08:50:12 51°13.636 2°56.018 9.4156 0.428703 2.477371 -1.326982
2012-02-13 08:50:17 51°13.636 2°56.018 9.4138 0.428703 2.477371 -1.326982
2012-02-13 08:50:22 51°13.636 2°56.019 9.4103 0.428806 2.478003 -1.326982
2012-02-13 08:50:27 51°13.636 2°56.019 9.4105 0.428806 2.478003 -1.326982
2012-02-13 08:50:32 51°13.636 2°56.019 9.4106 0.428703 2.477458 -1.326982
2012-02-13 08:50:37 51°13.636 2°56.018 9.4173 0.428806 2.478047 -1.326982
2012-02-13 08:50:42 51°13.636 2°56.018 9.4152 0.428806 2.47809 -1.326982
2012-02-13 08:50:47 51°13.636 2°56.019 9.4199 0.428703 2.477458 -1.326982
2012-02-13 08:50:52 51°13.636 2°56.019 9.4205 0.428703 2.477501 -1.326982
2012-02-13 08:50:57 51°13.636 2°56.018 9.4101 0.428703 2.477501 -1.326982
2012-02-13 08:51:02 51°13.636 2°56.018 9.4178 0.428703 2.477501 -1.326982
2012-02-13 08:51:07 51°13.636 2°56.018 9.4183 0.428806 2.478176 -1.326982
2012-02-13 08:51:12 51°13.636 2°56.018 9.4238 0.428703 2.477544 -1.326982
2012-02-13 08:51:18 51°13.636 2°56.018 9.4262 0.428806 2.478176 -1.326982
2012-02-13 08:51:22 51°13.636 2°56.018 9.4052 0.428806 2.47822 -1.326982
2012-02-13 08:51:27 51°13.636 2°56.018 9.4081 0.428806 2.47822 -1.326982
2012-02-13 08:51:32 51°13.635 2°56.018 9.4184 0.428703 2.477588 -1.326982
2012-02-13 08:51:37 51°13.636 2°56.018 9.4242 0.428703 2.477631 -1.326982
2012-02-13 08:51:42 51°13.636 2°56.018 9.4237 0.428703 2.477631 -1.326982
2012-02-13 08:51:46 51°13.635 2°56.018 9.4234 0.428806 2.478263 -1.326982
2012-02-13 08:51:52 51°13.635 2°56.018 9.421 0.428703 2.477631 -1.326982
2012-02-13 08:51:57 51°13.636 2°56.018 9.4213 0.428703 2.477631 -1.326982
2012-02-13 08:52:03 51°13.635 2°56.018 9.4205 0.428806 2.478306 -1.326982
2012-02-13 08:52:07 51°13.635 2°56.019 9.4235 0.428703 2.477674 -1.326982
2012-02-13 08:52:12 51°13.635 2°56.019 9.4194 0.428703 2.477717 -1.326982
2012-02-13 08:52:17 51°13.635 2°56.019 9.431 0.428806 2.478349 -1.326982
2012-02-13 08:52:22 51°13.635 2°56.018 9.4279 0.428703 2.477761 -1.326982
2012-02-13 08:52:27 51°13.635 2°56.018 9.4283 0.428703 2.477761 -1.326982
2012-02-13 08:52:32 51°13.635 2°56.019 9.4249 0.428703 2.477761 -1.326982
2012-02-13 08:52:37 51°13.635 2°56.019 9.416 0.428806 2.478436 -1.326982
2012-02-13 08:52:42 51°13.635 2°56.019 9.4127 0.428806 2.478436 -1.326982
2012-02-13 08:52:47 51°13.635 2°56.019 9.4321 0.428806 2.478479 -1.326982
2012-02-13 08:52:52 51°13.635 2°56.019 9.4498 0.428703 2.47789 -1.326982
2012-02-13 08:52:57 51°13.635 2°56.019 9.4584 0.428703 2.47789 -1.326982
2012-02-13 08:53:02 51°13.635 2°56.019 9.4611 0.428703 2.47789 -1.326982
2012-02-13 08:53:07 51°13.635 2°56.019 9.4583 0.428806 2.478566 -1.326982
2012-02-13 08:53:12 51°13.635 2°56.019 9.4573 0.428703 2.477977 -1.326982
2012-02-13 08:53:17 51°13.635 2°56.019 9.4692 0.428703 2.478063 -1.326982
2012-02-13 08:53:22 51°13.635 2°56.019 9.4691 0.428703 2.478063 -1.326982
2012-02-13 08:53:28 51°13.635 2°56.019 9.4665 0.428703 2.478063 -1.326982
2012-02-13 08:53:32 51°13.635 2°56.019 9.4442 0.428806 2.478739 -1.326982
2012-02-13 08:53:37 51°13.635 2°56.019 9.4666 0.428806 2.478782 -1.326982
2012-02-13 08:53:42 51°13.635 2°56.018 9.4913 0.428703 2.478236 -1.326982
2012-02-13 08:53:47 51°13.635 2°56.018 9.4793 0.428703 2.478236 -1.326982
2012-02-13 08:53:52 51°13.635 2°56.019 9.4496 0.428703 2.478236 -1.326982
2012-02-13 08:53:57 51°13.635 2°56.019 9.4511 0.428703 2.478236 -1.326982
2012-02-13 08:54:02 51°13.635 2°56.019 9.4542 0.428806 2.478912 -1.326982
2012-02-13 08:54:08 51°13.635 2°56.018 9.4216 0.428703 2.478366 -1.326982
2012-02-13 08:54:12 51°13.635 2°56.018 9.4329 0.428703 2.478409 -1.326982
2012-02-13 08:54:17 51°13.635 2°56.018 9.4437 0.428703 2.478496 -1.326982
2012-02-13 08:54:22 51°13.635 2°56.018 9.4461 0.428703 2.478539 -1.326982
2012-02-13 08:54:26 51°13.635 2°56.018 9.4769 0.428703 2.478539 -1.326982
2012-02-13 08:54:32 51°13.635 2°56.018 9.4905 0.428703 2.478626 -1.326982